Wetterdaten: Mittwoch, 23.11.2022
Datum Zeit Temp. Aussen Temp. o. S. Temp +5cm Feuchte Auss Luftdruck Regen Sonnenschein Regendauer Solar Windben Empfang
23.11.2022 00:00 8,2 C 7,8 C 4,4 C 95 % 996,9 hPa 0,0 l/m 0 min 0 min 0 W/m 25,7 km/h (4 Bft) 97,83 %
23.11.2022 00:02 8,3 C 7,8 C 4,4 C 95 % 996,9 hPa 0,0 l/m 0 min 0 min 0 W/m 32,2 km/h (5 Bft) 97,06 %
23.11.2022 00:04 8,3 C 7,8 C 4,4 C 94 % 996,9 hPa 0,0 l/m 0 min 0 min 0 W/m 22,5 km/h (4 Bft) 100,00 %
23.11.2022 00:08 8,3 C 7,8 C 4,4 C 94 % 996,9 hPa 0,0 l/m 0 min 0 min 0 W/m 25,7 km/h (4 Bft) 96,81 %
23.11.2022 00:10 8,4 C 7,8 C 4,4 C 94 % 997,0 hPa 0,0 l/m 0 min 0 min 0 W/m 16,1 km/h (3 Bft) 97,87 %
23.11.2022 00:12 8,4 C 7,8 C 4,4 C 94 % 997,0 hPa 0,0 l/m 0 min 0 min 0 W/m 19,3 km/h (3 Bft) 97,83 %
23.11.2022 00:14 8,4 C 7,8 C 4,4 C 94 % 996,9 hPa 0,0 l/m 0 min 0 min 0 W/m 16,1 km/h (3 Bft) 97,87 %
23.11.2022 00:16 8,4 C 7,8 C 4,4 C 94 % 997,0 hPa 0,0 l/m 0 min 0 min 0 W/m 32,2 km/h (5 Bft) 97,87 %
23.11.2022 00:18 8,4 C 7,8 C 4,4 C 94 % 997,1 hPa 0,0 l/m 0 min 0 min 0 W/m 16,1 km/h (3 Bft) 97,87 %
23.11.2022 00:20 8,4 C 7,8 C 4,4 C 94 % 997,0 hPa 0,0 l/m 0 min 0 min 0 W/m 19,3 km/h (3 Bft) 100,00 %
23.11.2022 00:22 8,4 C 7,8 C 4,4 C 94 % 997,0 hPa 0,0 l/m 0 min 0 min 0 W/m 16,1 km/h (3 Bft) 97,87 %
23.11.2022 00:24 8,4 C 7,8 C 4,4 C 93 % 997,0 hPa 0,0 l/m 0 min 0 min 0 W/m 12,9 km/h (3 Bft) 100,00 %
23.11.2022 00:26 8,5 C 7,8 C 4,4 C 93 % 997,1 hPa 0,0 l/m 0 min 0 min 0 W/m 29,0 km/h (5 Bft) 100,00 %
23.11.2022 00:28 8,5 C 7,8 C 4,4 C 93 % 997,1 hPa 0,0 l/m 0 min 0 min 0 W/m 16,1 km/h (3 Bft) 97,87 %
23.11.2022 00:30 8,5 C 7,8 C 4,4 C 93 % 997,1 hPa 0,0 l/m 0 min 0 min 0 W/m 35,4 km/h (5 Bft) 100,00 %
23.11.2022 00:32 8,5 C 7,8 C 4,4 C 93 % 997,1 hPa 0,0 l/m 0 min 0 min 0 W/m 16,1 km/h (3 Bft) 100,00 %
23.11.2022 00:34 8,6 C 7,8 C 4,4 C 93 % 997,2 hPa 0,0 l/m 0 min 0 min 0 W/m 19,3 km/h (3 Bft) 100,00 %
23.11.2022 00:36 8,6 C 7,8 C 4,4 C 93 % 997,2 hPa 0,0 l/m 0 min 0 min 0 W/m 19,3 km/h (3 Bft) 100,00 %
23.11.2022 00:38 8,6 C 7,8 C 4,4 C 93 % 997,1 hPa 0,0 l/m 0 min 0 min 0 W/m 22,5 km/h (4 Bft) 97,87 %
23.11.2022 00:40 8,6 C 7,8 C 4,4 C 93 % 997,1 hPa 0,0 l/m 0 min 0 min 0 W/m 16,1 km/h (3 Bft) 100,00 %
23.11.2022 00:42 8,6 C 7,8 C 4,4 C 93 % 997,2 hPa 0,0 l/m 0 min 0 min 0 W/m 29,0 km/h (5 Bft) 100,00 %
23.11.2022 00:44 8,6 C 7,8 C 4,4 C 93 % 997,2 hPa 0,0 l/m 0 min 0 min 0 W/m 29,0 km/h (5 Bft) 100,00 %
23.11.2022 00:46 8,6 C 8,3 C 4,4 C 92 % 997,1 hPa 0,0 l/m 0 min 0 min 0 W/m 25,7 km/h (4 Bft) 97,87 %
23.11.2022 00:48 8,6 C 8,3 C 4,4 C 92 % 997,2 hPa 0,0 l/m 0 min 0 min 0 W/m 22,5 km/h (4 Bft) 97,83 %
23.11.2022 00:50 8,7 C 8,3 C 4,4 C 92 % 997,2 hPa 0,0 l/m 0 min 0 min 0 W/m 19,3 km/h (3 Bft) 97,87 %
23.11.2022 00:52 8,7 C 8,3 C 4,4 C 92 % 997,2 hPa 0,0 l/m 0 min 0 min 0 W/m 29,0 km/h (5 Bft) 97,87 %
23.11.2022 00:54 8,7 C 8,3 C 5,0 C 92 % 997,2 hPa 0,0 l/m 0 min 0 min 0 W/m 25,7 km/h (4 Bft) 97,87 %
23.11.2022 00:56 8,7 C 8,3 C 4,4 C 92 % 997,2 hPa 0,0 l/m 0 min 0 min 0 W/m 16,1 km/h (3 Bft) 95,74 %
23.11.2022 00:58 8,7 C 8,3 C 4,4 C 92 % 997,2 hPa 0,0 l/m 0 min 0 min 0 W/m 16,1 km/h (3 Bft) 97,87 %
23.11.2022 01:00 8,7 C 8,3 C 4,4 C 92 % 997,3 hPa 0,0 l/m 0 min 0 min 0 W/m 22,5 km/h (4 Bft) 95,65 %
23.11.2022 01:02 8,7 C 8,3 C 5,0 C 92 % 997,3 hPa 0,0 l/m 0 min 0 min 0 W/m 25,7 km/h (4 Bft) 95,74 %
23.11.2022 01:04 8,7 C 8,3 C 5,0 C 92 % 997,3 hPa 0,0 l/m 0 min 0 min 0 W/m 19,3 km/h (3 Bft) 97,87 %
23.11.2022 01:06 8,7 C 8,3 C 5,0 C 92 % 997,3 hPa 0,0 l/m 0 min 0 min 0 W/m 19,3 km/h (3 Bft) 93,62 %
23.11.2022 01:08 8,7 C 8,3 C 5,0 C 92 % 997,3 hPa 0,0 l/m 0 min 0 min 0 W/m 19,3 km/h (3 Bft) 98,15 %
23.11.2022 01:10 8,8 C 8,3 C 5,0 C 92 % 997,3 hPa 0,0 l/m 0 min 0 min 0 W/m 19,3 km/h (3 Bft) 93,62 %
23.11.2022 01:12 8,8 C 8,3 C 5,0 C 91 % 997,3 hPa 0,0 l/m 0 min 0 min 0 W/m 16,1 km/h (3 Bft) 93,62 %
23.11.2022 01:14 8,8 C 8,3 C 5,0 C 91 % 997,3 hPa 0,0 l/m 0 min 0 min 0 W/m 19,3 km/h (3 Bft) 92,00 %
23.11.2022 01:16 8,8 C 8,3 C 5,0 C 91 % 997,3 hPa 0,0 l/m 0 min 0 min 0 W/m 12,9 km/h (3 Bft) 89,36 %
23.11.2022 01:18 8,8 C 8,3 C 5,0 C 91 % 997,4 hPa 0,0 l/m 0 min 0 min 0 W/m 19,3 km/h (3 Bft) 93,62 %
23.11.2022 01:20 8,8 C 8,3 C 5,0 C 91 % 997,4 hPa 0,0 l/m 0 min 0 min 0 W/m 19,3 km/h (3 Bft) 91,49 %
23.11.2022 01:22 8,8 C 8,3 C 5,0 C 91 % 997,4 hPa 0,0 l/m 0 min 0 min 0 W/m 19,3 km/h (3 Bft) 95,74 %
23.11.2022 01:24 8,8 C 8,3 C 5,0 C 91 % 997,4 hPa 0,0 l/m 0 min 0 min 0 W/m 16,1 km/h (3 Bft) 93,62 %
23.11.2022 01:26 8,8 C 8,3 C 5,0 C 91 % 997,4 hPa 0,0 l/m 0 min 0 min 0 W/m 9,7 km/h (2 Bft) 95,65 %
23.11.2022 01:28 8,8 C 8,3 C 5,0 C 91 % 997,4 hPa 0,0 l/m 0 min 0 min 0 W/m 12,9 km/h (3 Bft) 95,74 %
23.11.2022 01:30 8,8 C 8,3 C 5,0 C 91 % 997,4 hPa 0,0 l/m 0 min 0 min 0 W/m 19,3 km/h (3 Bft) 93,62 %
23.11.2022 01:32 8,8 C 8,3 C 5,0 C 91 % 997,5 hPa 0,0 l/m 0 min 0 min 0 W/m 12,9 km/h (3 Bft) 91,49 %
23.11.2022 01:34 8,8 C 8,3 C 5,0 C 91 % 997,5 hPa 0,0 l/m 0 min 0 min 0 W/m 12,9 km/h (3 Bft) 95,74 %
23.11.2022 01:36 8,8 C 8,3 C 5,0 C 91 % 997,5 hPa 0,0 l/m 0 min 0 min 0 W/m 12,9 km/h (3 Bft) 91,49 %
23.11.2022 01:38 8,8 C 8,3 C 5,0 C 91 % 997,5 hPa 0,0 l/m 0 min 0 min 0 W/m 16,1 km/h (3 Bft) 91,30 %
23.11.2022 01:40 8,8 C 8,3 C 5,0 C 91 % 997,5 hPa 0,0 l/m 0 min 0 min 0 W/m 29,0 km/h (5 Bft) 93,62 %
23.11.2022 01:42 8,8 C 7,8 C 5,0 C 91 % 997,5 hPa 0,0 l/m 0 min 0 min 0 W/m 12,9 km/h (3 Bft) 93,62 %
23.11.2022 01:44 8,8 C 7,8 C 5,0 C 91 % 997,5 hPa 0,0 l/m 0 min 0 min 0 W/m 12,9 km/h (3 Bft) 91,49 %
23.11.2022 01:46 8,8 C 7,8 C 5,0 C 91 % 997,5 hPa 0,0 l/m 0 min 0 min 0 W/m 12,9 km/h (3 Bft) 91,49 %
23.11.2022 01:48 8,8 C 7,8 C 5,0 C 91 % 997,5 hPa 0,0 l/m 0 min 0 min 0 W/m 6,4 km/h (2 Bft) 95,74 %
23.11.2022 01:50 8,8 C 7,8 C 5,0 C 91 % 997,5 hPa 0,0 l/m 0 min 0 min 0 W/m 12,9 km/h (3 Bft) 97,83 %
23.11.2022 01:52 8,8 C 7,8 C 5,0 C 91 % 997,6 hPa 0,0 l/m 0 min 0 min 0 W/m 19,3 km/h (3 Bft) 93,62 %
23.11.2022 01:54 8,8 C 8,3 C 5,0 C 91 % 997,6 hPa 0,0 l/m 0 min 0 min 0 W/m 12,9 km/h (3 Bft) 95,74 %
23.11.2022 01:56 8,8 C 8,3 C 5,0 C 91 % 997,6 hPa 0,0 l/m 0 min 0 min 0 W/m 19,3 km/h (3 Bft) 97,87 %
23.11.2022 01:58 8,8 C 8,3 C 5,0 C 91 % 997,6 hPa 0,0 l/m 0 min 0 min 0 W/m 16,1 km/h (3 Bft) 97,87 %
23.11.2022 02:00 8,8 C 8,3 C 5,0 C 91 % 997,6 hPa 0,0 l/m 0 min 0 min 0 W/m 35,4 km/h (5 Bft) 95,74 %
23.11.2022 02:02 8,8 C 8,3 C 5,0 C 91 % 997,6 hPa 0,0 l/m 0 min 0 min 0 W/m 29,0 km/h (5 Bft) 95,65 %
23.11.2022 02:04 8,8 C 8,3 C 5,0 C 91 % 997,6 hPa 0,0 l/m 0 min 0 min 0 W/m 32,2 km/h (5 Bft) 97,67 %
23.11.2022 02:06 8,8 C 8,3 C 5,0 C 91 % 997,6 hPa 0,0 l/m 0 min 0 min 0 W/m 25,7 km/h (4 Bft) 95,74 %
23.11.2022 02:08 8,8 C 8,3 C 5,0 C 91 % 997,6 hPa 0,0 l/m 0 min 0 min 0 W/m 19,3 km/h (3 Bft) 100,00 %
23.11.2022 02:10 8,8 C 8,3 C 5,0 C 91 % 997,6 hPa 0,0 l/m 0 min 0 min 0 W/m 16,1 km/h (3 Bft) 100,00 %
23.11.2022 02:12 8,8 C 8,3 C 5,0 C 90 % 997,6 hPa 0,0 l/m 0 min 0 min 0 W/m 19,3 km/h (3 Bft) 97,83 %
23.11.2022 02:14 8,8 C 8,3 C 5,0 C 91 % 997,7 hPa 0,0 l/m 0 min 0 min 0 W/m 19,3 km/h (3 Bft) 100,00 %
23.11.2022 02:16 8,8 C 8,3 C 5,6 C 91 % 997,6 hPa 0,0 l/m 0 min 0 min 0 W/m 22,5 km/h (4 Bft) 97,87 %
23.11.2022 02:18 8,8 C 8,3 C 5,6 C 90 % 997,6 hPa 0,0 l/m 0 min 0 min 0 W/m 29,0 km/h (5 Bft) 97,87 %
23.11.2022 02:20 8,9 C 8,3 C 5,6 C 90 % 997,7 hPa 0,0 l/m 0 min 0 min 0 W/m 22,5 km/h (4 Bft) 100,00 %
23.11.2022 02:22 8,9 C 8,3 C 5,6 C 90 % 997,8 hPa 0,0 l/m 0 min 0 min 0 W/m 35,4 km/h (5 Bft) 100,00 %
23.11.2022 02:24 8,9 C 8,3 C 5,6 C 90 % 997,8 hPa 0,0 l/m 0 min 0 min 0 W/m 22,5 km/h (4 Bft) 97,87 %
23.11.2022 02:26 8,9 C 8,3 C 5,6 C 90 % 997,8 hPa 0,0 l/m 0 min 0 min 0 W/m 22,5 km/h (4 Bft) 100,00 %
23.11.2022 02:28 8,9 C 8,3 C 5,6 C 90 % 997,7 hPa 0,0 l/m 0 min 0 min 0 W/m 32,2 km/h (5 Bft) 100,00 %
23.11.2022 02:30 8,9 C 8,3 C 5,6 C 90 % 997,8 hPa 0,0 l/m 0 min 0 min 0 W/m 16,1 km/h (3 Bft) 100,00 %
23.11.2022 02:32 8,9 C 8,3 C 5,6 C 90 % 997,9 hPa 0,0 l/m 0 min 0 min 0 W/m 25,7 km/h (4 Bft) 97,87 %
23.11.2022 02:34 8,9 C 8,3 C 5,6 C 90 % 997,9 hPa 0,0 l/m 0 min 0 min 0 W/m 12,9 km/h (3 Bft) 100,00 %
23.11.2022 02:36 8,9 C 8,3 C 5,6 C 90 % 997,8 hPa 0,0 l/m 0 min 0 min 0 W/m 19,3 km/h (3 Bft) 100,00 %
23.11.2022 02:38 8,9 C 8,3 C 5,6 C 90 % 997,8 hPa 0,0 l/m 0 min 0 min 0 W/m 19,3 km/h (3 Bft) 100,00 %
23.11.2022 02:40 8,9 C 8,3 C 5,6 C 90 % 997,9 hPa 0,0 l/m 0 min 0 min 0 W/m 22,5 km/h (4 Bft) 100,00 %
23.11.2022 02:42 8,9 C 8,3 C 5,6 C 90 % 997,8 hPa 0,0 l/m 0 min 0 min 0 W/m 22,5 km/h (4 Bft) 95,74 %
23.11.2022 02:44 8,9 C 8,3 C 5,6 C 90 % 997,8 hPa 0,0 l/m 0 min 0 min 0 W/m 19,3 km/h (3 Bft) 100,00 %
23.11.2022 02:46 8,9 C 8,3 C 5,6 C 90 % 997,9 hPa 0,0 l/m 0 min 0 min 0 W/m 22,5 km/h (4 Bft) 97,83 %
23.11.2022 02:48 8,9 C 8,3 C 5,6 C 90 % 997,8 hPa 0,0 l/m 0 min 0 min 0 W/m 25,7 km/h (4 Bft) 100,00 %
23.11.2022 02:50 8,9 C 8,3 C 5,6 C 90 % 997,9 hPa 0,0 l/m 0 min 0 min 0 W/m 22,5 km/h (4 Bft) 100,00 %
23.11.2022 02:52 8,9 C 8,3 C 5,6 C 90 % 997,8 hPa 0,0 l/m 0 min 0 min 0 W/m 22,5 km/h (4 Bft) 100,00 %
23.11.2022 02:54 8,9 C 8,3 C 5,6 C 89 % 997,9 hPa 0,0 l/m 0 min 0 min 0 W/m 22,5 km/h (4 Bft) 100,00 %
23.11.2022 02:56 8,9 C 8,3 C 5,6 C 89 % 997,8 hPa 0,0 l/m 0 min 0 min 0 W/m 22,5 km/h (4 Bft) 100,00 %
23.11.2022 02:58 8,9 C 8,3 C 5,6 C 89 % 997,9 hPa 0,0 l/m 0 min 0 min 0 W/m 19,3 km/h (3 Bft) 100,00 %
23.11.2022 03:00 8,9 C 8,3 C 5,6 C 89 % 997,9 hPa 0,0 l/m 0 min 0 min 0 W/m 12,9 km/h (3 Bft) 100,00 %
23.11.2022 03:02 8,9 C 8,3 C 5,0 C 89 % 997,9 hPa 0,0 l/m 0 min 0 min 0 W/m 19,3 km/h (3 Bft) 100,00 %
23.11.2022 03:04 8,9 C 8,3 C 5,6 C 90 % 997,9 hPa 0,0 l/m 0 min 0 min 0 W/m 19,3 km/h (3 Bft) 98,04 %
23.11.2022 03:06 8,9 C 8,3 C 5,0 C 90 % 997,9 hPa 0,0 l/m 0 min 0 min 0 W/m 22,5 km/h (4 Bft) 100,00 %
23.11.2022 03:08 8,9 C 8,3 C 5,0 C 90 % 997,9 hPa 0,0 l/m 0 min 0 min 0 W/m 19,3 km/h (3 Bft) 100,00 %
23.11.2022 03:10 8,9 C 8,3 C 5,0 C 90 % 998,0 hPa 0,0 l/m 0 min 0 min 0 W/m 19,3 km/h (3 Bft) 100,00 %
23.11.2022 03:12 8,8 C 8,3 C 5,0 C 90 % 998,0 hPa 0,0 l/m 0 min 0 min 0 W/m 22,5 km/h (4 Bft) 100,00 %
23.11.2022 03:14 8,8 C 8,3 C 5,0 C 90 % 998,0 hPa 0,0 l/m 0 min 0 min 0 W/m 16,1 km/h (3 Bft) 100,00 %
23.11.2022 03:16 8,8 C 8,3 C 5,0 C 90 % 998,0 hPa 0,0 l/m 0 min 0 min 0 W/m 12,9 km/h (3 Bft) 97,87 %
23.11.2022 03:18 8,8 C 8,3 C 5,0 C 90 % 998,0 hPa 0,0 l/m 0 min 0 min 0 W/m 29,0 km/h (5 Bft) 97,87 %
23.11.2022 03:20 8,8 C 8,3 C 5,0 C 90 % 998,0 hPa 0,0 l/m 0 min 0 min 0 W/m 19,3 km/h (3 Bft) 100,00 %
23.11.2022 03:22 8,8 C 8,3 C 5,0 C 90 % 998,1 hPa 0,0 l/m 0 min 0 min 0 W/m 16,1 km/h (3 Bft) 100,00 %
23.11.2022 03:24 8,8 C 8,3 C 5,0 C 90 % 998,1 hPa 0,0 l/m 0 min 0 min 0 W/m 19,3 km/h (3 Bft) 95,65 %
23.11.2022 03:26 8,8 C 8,3 C 5,0 C 90 % 998,1 hPa 0,0 l/m 0 min 0 min 0 W/m 19,3 km/h (3 Bft) 100,00 %
23.11.2022 03:28 8,8 C 8,3 C 5,0 C 90 % 998,1 hPa 0,0 l/m 0 min 0 min 0 W/m 25,7 km/h (4 Bft) 100,00 %
23.11.2022 03:30 8,8 C 8,3 C 5,0 C 90 % 998,1 hPa 0,0 l/m 0 min 0 min 0 W/m 16,1 km/h (3 Bft) 97,87 %
23.11.2022 03:32 8,8 C 8,3 C 5,6 C 90 % 998,1 hPa 0,0 l/m 0 min 0 min 0 W/m 35,4 km/h (5 Bft) 95,74 %
23.11.2022 03:34 8,9 C 8,3 C 5,6 C 89 % 998,1 hPa 0,0 l/m 0 min 0 min 0 W/m 25,7 km/h (4 Bft) 97,87 %
23.11.2022 03:36 8,9 C 8,3 C 5,6 C 89 % 998,1 hPa 0,0 l/m 0 min 0 min 0 W/m 25,7 km/h (4 Bft) 97,83 %
23.11.2022 03:38 8,9 C 8,3 C 5,6 C 89 % 998,1 hPa 0,0 l/m 0 min 0 min 0 W/m 22,5 km/h (4 Bft) 95,74 %
23.11.2022 03:40 8,9 C 8,3 C 5,6 C 89 % 998,1 hPa 0,0 l/m 0 min 0 min 0 W/m 25,7 km/h (4 Bft) 95,74 %
23.11.2022 03:42 8,9 C 8,3 C 5,6 C 89 % 998,1 hPa 0,0 l/m 0 min 0 min 0 W/m 19,3 km/h (3 Bft) 95,74 %
23.11.2022 03:44 8,9 C 8,3 C 5,6 C 89 % 998,1 hPa 0,0 l/m 0 min 0 min 0 W/m 19,3 km/h (3 Bft) 95,74 %
23.11.2022 03:46 8,9 C 8,3 C 5,6 C 89 % 998,2 hPa 0,0 l/m 0 min 0 min 0 W/m 25,7 km/h (4 Bft) 93,62 %
23.11.2022 03:48 8,9 C 8,3 C 5,6 C 89 % 998,1 hPa 0,0 l/m 0 min 0 min 0 W/m 32,2 km/h (5 Bft) 95,65 %
23.11.2022 03:50 8,9 C 8,3 C 5,6 C 89 % 998,1 hPa 0,0 l/m 0 min 0 min 0 W/m 19,3 km/h (3 Bft) 93,62 %
23.11.2022 03:52 8,9 C 8,3 C 5,6 C 89 % 998,1 hPa 0,0 l/m 0 min 0 min 0 W/m 12,9 km/h (3 Bft) 91,49 %
23.11.2022 03:54 8,9 C 8,3 C 5,6 C 89 % 998,1 hPa 0,0 l/m 0 min 0 min 0 W/m 25,7 km/h (4 Bft) 91,49 %
23.11.2022 03:56 8,9 C 8,3 C 5,0 C 89 % 998,2 hPa 0,0 l/m 0 min 0 min 0 W/m 16,1 km/h (3 Bft) 95,74 %
23.11.2022 03:58 8,9 C 7,8 C 5,0 C 90 % 998,2 hPa 0,0 l/m 0 min 0 min 0 W/m 19,3 km/h (3 Bft) 93,62 %
23.11.2022 04:00 8,9 C 7,8 C 5,0 C 90 % 998,2 hPa 0,0 l/m 0 min 0 min 0 W/m 19,3 km/h (3 Bft) 89,13 %
23.11.2022 04:02 8,8 C 7,8 C 5,0 C 90 % 998,2 hPa 0,0 l/m 0 min 0 min 0 W/m 16,1 km/h (3 Bft) 96,97 %
23.11.2022 04:04 8,8 C 7,8 C 5,0 C 90 % 998,3 hPa 0,0 l/m 0 min 0 min 0 W/m 22,5 km/h (4 Bft) 95,74 %
23.11.2022 04:06 8,8 C 7,8 C 5,0 C 90 % 998,3 hPa 0,0 l/m 0 min 0 min 0 W/m 16,1 km/h (3 Bft) 95,74 %
23.11.2022 04:08 8,8 C 7,8 C 5,0 C 90 % 998,3 hPa 0,0 l/m 0 min 0 min 0 W/m 12,9 km/h (3 Bft) 95,74 %
23.11.2022 04:10 8,8 C 7,8 C 5,0 C 91 % 998,3 hPa 0,0 l/m 0 min 0 min 0 W/m 12,9 km/h (3 Bft) 91,49 %
23.11.2022 04:12 8,8 C 7,8 C 5,0 C 91 % 998,3 hPa 0,0 l/m 0 min 0 min 0 W/m 9,7 km/h (2 Bft) 100,00 %
23.11.2022 04:14 8,7 C 7,8 C 5,0 C 91 % 998,3 hPa 0,0 l/m 0 min 0 min 0 W/m 12,9 km/h (3 Bft) 93,62 %
23.11.2022 04:16 8,7 C 7,8 C 5,0 C 91 % 998,3 hPa 0,0 l/m 0 min 0 min 0 W/m 6,4 km/h (2 Bft) 95,74 %
23.11.2022 04:18 8,7 C 7,8 C 5,0 C 91 % 998,3 hPa 0,0 l/m 0 min 0 min 0 W/m 12,9 km/h (3 Bft) 95,74 %
23.11.2022 04:20 8,7 C 7,8 C 5,0 C 91 % 998,3 hPa 0,0 l/m 0 min 0 min 0 W/m 6,4 km/h (2 Bft) 95,74 %
23.11.2022 04:22 8,7 C 7,8 C 5,0 C 91 % 998,3 hPa 0,0 l/m 0 min 0 min 0 W/m 9,7 km/h (2 Bft) 95,74 %
23.11.2022 04:24 8,6 C 7,8 C 5,0 C 91 % 998,3 hPa 0,0 l/m 0 min 0 min 0 W/m 9,7 km/h (2 Bft) 93,48 %
23.11.2022 04:26 8,6 C 7,8 C 5,0 C 92 % 998,3 hPa 0,0 l/m 0 min 0 min 0 W/m 9,7 km/h (2 Bft) 97,87 %
23.11.2022 04:28 8,6 C 7,8 C 5,0 C 92 % 998,3 hPa 0,0 l/m 0 min 0 min 0 W/m 9,7 km/h (2 Bft) 95,74 %
23.11.2022 04:30 8,6 C 7,8 C 5,0 C 92 % 998,3 hPa 0,0 l/m 0 min 0 min 0 W/m 22,5 km/h (4 Bft) 97,87 %
23.11.2022 04:32 8,6 C 7,8 C 5,0 C 92 % 998,3 hPa 0,0 l/m 0 min 0 min 0 W/m 19,3 km/h (3 Bft) 95,74 %
23.11.2022 04:34 8,6 C 7,8 C 5,0 C 92 % 998,4 hPa 0,0 l/m 0 min 0 min 0 W/m 19,3 km/h (3 Bft) 97,87 %
23.11.2022 04:36 8,6 C 7,8 C 5,0 C 92 % 998,3 hPa 0,0 l/m 0 min 0 min 0 W/m 19,3 km/h (3 Bft) 97,83 %
23.11.2022 04:38 8,6 C 7,8 C 5,0 C 92 % 998,3 hPa 0,0 l/m 0 min 0 min 0 W/m 25,7 km/h (4 Bft) 97,87 %
23.11.2022 04:40 8,6 C 8,3 C 5,0 C 92 % 998,4 hPa 0,0 l/m 0 min 0 min 0 W/m 19,3 km/h (3 Bft) 97,87 %
23.11.2022 04:42 8,6 C 8,3 C 5,0 C 92 % 998,4 hPa 0,0 l/m 0 min 0 min 0 W/m 12,9 km/h (3 Bft) 95,74 %
23.11.2022 04:44 8,6 C 8,3 C 5,0 C 91 % 998,4 hPa 0,0 l/m 0 min 0 min 0 W/m 19,3 km/h (3 Bft) 100,00 %
23.11.2022 04:46 8,6 C 8,3 C 5,0 C 91 % 998,4 hPa 0,0 l/m 0 min 0 min 0 W/m 19,3 km/h (3 Bft) 100,00 %
23.11.2022 04:48 8,7 C 8,3 C 5,0 C 91 % 998,4 hPa 0,0 l/m 0 min 0 min 0 W/m 19,3 km/h (3 Bft) 100,00 %
23.11.2022 04:50 8,7 C 8,3 C 5,0 C 91 % 998,4 hPa 0,0 l/m 0 min 0 min 0 W/m 19,3 km/h (3 Bft) 97,87 %
23.11.2022 04:52 8,7 C 8,3 C 5,0 C 91 % 998,3 hPa 0,0 l/m 0 min 0 min 0 W/m 16,1 km/h (3 Bft) 97,87 %
23.11.2022 04:54 8,7 C 8,3 C 5,0 C 91 % 998,4 hPa 0,0 l/m 0 min 0 min 0 W/m 16,1 km/h (3 Bft) 100,00 %
23.11.2022 04:56 8,7 C 8,3 C 5,0 C 91 % 998,4 hPa 0,0 l/m 0 min 0 min 0 W/m 12,9 km/h (3 Bft) 97,87 %
23.11.2022 04:58 8,7 C 8,3 C 5,0 C 91 % 998,3 hPa 0,0 l/m 0 min 0 min 0 W/m 19,3 km/h (3 Bft) 100,00 %
23.11.2022 05:00 8,7 C 8,3 C 5,0 C 91 % 998,4 hPa 0,0 l/m 0 min 0 min 0 W/m 22,5 km/h (4 Bft) 100,00 %
23.11.2022 05:02 8,7 C 8,3 C 5,0 C 91 % 998,4 hPa 0,0 l/m 0 min 0 min 0 W/m 22,5 km/h (4 Bft) 100,00 %
23.11.2022 05:04 8,7 C 8,3 C 5,0 C 91 % 998,4 hPa 0,0 l/m 0 min 0 min 0 W/m 29,0 km/h (5 Bft) 100,00 %
23.11.2022 05:06 8,7 C 7,8 C 5,0 C 91 % 998,4 hPa 0,0 l/m 0 min 0 min 0 W/m 19,3 km/h (3 Bft) 100,00 %
23.11.2022 05:08 8,7 C 7,8 C 5,0 C 90 % 998,4 hPa 0,0 l/m 0 min 0 min 0 W/m 16,1 km/h (3 Bft) 100,00 %
23.11.2022 05:10 8,7 C 7,8 C 5,0 C 90 % 998,4 hPa 0,0 l/m 0 min 0 min 0 W/m 6,4 km/h (2 Bft) 100,00 %
23.11.2022 05:12 8,7 C 7,8 C 5,0 C 90 % 998,4 hPa 0,0 l/m 0 min 0 min 0 W/m 12,9 km/h (3 Bft) 100,00 %
23.11.2022 05:14 8,7 C 7,8 C 5,0 C 90 % 998,4 hPa 0,0 l/m 0 min 0 min 0 W/m 25,7 km/h (4 Bft) 97,87 %
23.11.2022 05:16 8,7 C 7,8 C 5,0 C 90 % 998,4 hPa 0,0 l/m 0 min 0 min 0 W/m 19,3 km/h (3 Bft) 97,87 %
23.11.2022 05:18 8,7 C 7,8 C 5,0 C 90 % 998,4 hPa 0,0 l/m 0 min 0 min 0 W/m 16,1 km/h (3 Bft) 100,00 %
23.11.2022 05:20 8,7 C 7,8 C 5,0 C 90 % 998,4 hPa 0,0 l/m 0 min 0 min 0 W/m 22,5 km/h (4 Bft) 100,00 %
23.11.2022 05:22 8,7 C 7,8 C 5,0 C 90 % 998,3 hPa 0,0 l/m 0 min 0 min 0 W/m 12,9 km/h (3 Bft) 97,87 %
23.11.2022 05:24 8,7 C 7,8 C 5,0 C 90 % 998,3 hPa 0,0 l/m 0 min 0 min 0 W/m 6,4 km/h (2 Bft) 100,00 %
23.11.2022 05:26 8,7 C 7,8 C 5,0 C 90 % 998,3 hPa 0,0 l/m 0 min 0 min 0 W/m 9,7 km/h (2 Bft) 91,49 %
23.11.2022 05:28 8,7 C 7,8 C 5,0 C 90 % 998,3 hPa 0,0 l/m 0 min 0 min 0 W/m 19,3 km/h (3 Bft) 97,87 %
23.11.2022 05:30 8,7 C 7,8 C 5,0 C 90 % 998,3 hPa 0,0 l/m 0 min 0 min 0 W/m 22,5 km/h (4 Bft) 93,62 %
23.11.2022 05:32 8,7 C 7,8 C 5,0 C 90 % 998,3 hPa 0,0 l/m 0 min 0 min 0 W/m 19,3 km/h (3 Bft) 97,83 %
23.11.2022 05:34 8,7 C 7,8 C 5,0 C 90 % 998,3 hPa 0,0 l/m 0 min 0 min 0 W/m 16,1 km/h (3 Bft) 97,87 %
23.11.2022 05:36 8,7 C 8,3 C 5,0 C 90 % 998,3 hPa 0,0 l/m 0 min 0 min 0 W/m 25,7 km/h (4 Bft) 97,87 %
23.11.2022 05:38 8,7 C 8,3 C 5,0 C 90 % 998,3 hPa 0,0 l/m 0 min 0 min 0 W/m 12,9 km/h (3 Bft) 97,87 %
23.11.2022 05:40 8,7 C 8,3 C 5,0 C 90 % 998,4 hPa 0,0 l/m 0 min 0 min 0 W/m 29,0 km/h (5 Bft) 97,87 %
23.11.2022 05:42 8,7 C 8,3 C 5,0 C 89 % 998,3 hPa 0,0 l/m 0 min 0 min 0 W/m 16,1 km/h (3 Bft) 97,87 %
23.11.2022 05:44 8,7 C 8,3 C 5,0 C 89 % 998,3 hPa 0,0 l/m 0 min 0 min 0 W/m 16,1 km/h (3 Bft) 97,83 %
23.11.2022 05:46 8,7 C 8,3 C 5,0 C 89 % 998,4 hPa 0,0 l/m 0 min 0 min 0 W/m 12,9 km/h (3 Bft) 97,87 %
23.11.2022 05:48 8,7 C 8,3 C 5,0 C 89 % 998,4 hPa 0,0 l/m 0 min 0 min 0 W/m 22,5 km/h (4 Bft) 95,74 %
23.11.2022 05:50 8,7 C 8,3 C 5,0 C 89 % 998,4 hPa 0,0 l/m 0 min 0 min 0 W/m 19,3 km/h (3 Bft) 97,87 %
23.11.2022 05:52 8,7 C 8,3 C 5,0 C 89 % 998,4 hPa 0,0 l/m 0 min 0 min 0 W/m 25,7 km/h (4 Bft) 97,87 %
23.11.2022 05:54 8,7 C 8,3 C 5,0 C 89 % 998,4 hPa 0,0 l/m 0 min 0 min 0 W/m 9,7 km/h (2 Bft) 97,87 %
23.11.2022 05:56 8,8 C 8,3 C 5,0 C 89 % 998,4 hPa 0,0 l/m 0 min 0 min 0 W/m 6,4 km/h (2 Bft) 97,83 %
23.11.2022 05:58 8,8 C 8,3 C 5,0 C 89 % 998,4 hPa 0,0 l/m 0 min 0 min 0 W/m 12,9 km/h (3 Bft) 97,87 %
23.11.2022 06:00 8,8 C 8,3 C 5,0 C 89 % 998,4 hPa 0,0 l/m 0 min 0 min 0 W/m 29,0 km/h (5 Bft) 97,87 %
23.11.2022 06:02 8,8 C 8,3 C 5,0 C 89 % 998,4 hPa 0,0 l/m 0 min 0 min 0 W/m 29,0 km/h (5 Bft) 100,00 %
23.11.2022 06:04 8,8 C 8,3 C 5,0 C 88 % 998,4 hPa 0,0 l/m 0 min 0 min 0 W/m 12,9 km/h (3 Bft) 100,00 %
23.11.2022 06:07 8,8 C 8,3 C 5,0 C 88 % 998,4 hPa 0,0 l/m 0 min 0 min 0 W/m 12,9 km/h (3 Bft) 100,00 %
23.11.2022 06:08 8,8 C 8,3 C 5,0 C 88 % 998,4 hPa 0,0 l/m 0 min 0 min 0 W/m 12,9 km/h (3 Bft) 100,00 %
23.11.2022 06:10 8,8 C 8,3 C 5,0 C 88 % 998,4 hPa 0,0 l/m 0 min 0 min 0 W/m 22,5 km/h (4 Bft) 97,87 %
23.11.2022 06:12 8,8 C 8,3 C 5,0 C 88 % 998,3 hPa 0,0 l/m 0 min 0 min 0 W/m 19,3 km/h (3 Bft) 100,00 %
23.11.2022 06:14 8,8 C 8,3 C 5,0 C 88 % 998,3 hPa 0,0 l/m 0 min 0 min 0 W/m 16,1 km/h (3 Bft) 97,87 %
23.11.2022 06:16 8,8 C 8,3 C 5,0 C 88 % 998,3 hPa 0,0 l/m 0 min 0 min 0 W/m 16,1 km/h (3 Bft) 95,74 %
23.11.2022 06:18 8,8 C 8,3 C 5,0 C 88 % 998,3 hPa 0,0 l/m 0 min 0 min 0 W/m 25,7 km/h (4 Bft) 97,83 %
23.11.2022 06:20 8,8 C 8,3 C 5,0 C 88 % 998,4 hPa 0,0 l/m 0 min 0 min 0 W/m 12,9 km/h (3 Bft) 97,87 %
23.11.2022 06:22 8,8 C 8,3 C 5,0 C 88 % 998,4 hPa 0,0 l/m 0 min 0 min 0 W/m 12,9 km/h (3 Bft) 97,87 %
23.11.2022 06:24 8,8 C 8,3 C 5,0 C 88 % 998,4 hPa 0,0 l/m 0 min 0 min 0 W/m 12,9 km/h (3 Bft) 97,87 %
23.11.2022 06:26 8,8 C 8,3 C 5,0 C 88 % 998,4 hPa 0,0 l/m 0 min 0 min 0 W/m 12,9 km/h (3 Bft) 97,87 %
23.11.2022 06:28 8,8 C 7,8 C 5,0 C 88 % 998,4 hPa 0,0 l/m 0 min 0 min 0 W/m 12,9 km/h (3 Bft) 97,87 %
23.11.2022 06:30 8,8 C 7,8 C 5,0 C 88 % 998,4 hPa 0,0 l/m 0 min 0 min 0 W/m 6,4 km/h (2 Bft) 97,83 %
23.11.2022 06:32 8,8 C 7,8 C 5,0 C 88 % 998,4 hPa 0,0 l/m 0 min 0 min 0 W/m 19,3 km/h (3 Bft) 97,87 %
23.11.2022 06:34 8,8 C 7,8 C 5,0 C 88 % 998,4 hPa 0,0 l/m 0 min 0 min 0 W/m 12,9 km/h (3 Bft) 95,74 %
23.11.2022 06:36 8,8 C 7,8 C 5,0 C 89 % 998,4 hPa 0,0 l/m 0 min 0 min 0 W/m 12,9 km/h (3 Bft) 97,87 %
23.11.2022 06:38 8,7 C 7,8 C 5,0 C 89 % 998,4 hPa 0,0 l/m 0 min 0 min 0 W/m 19,3 km/h (3 Bft) 97,87 %
23.11.2022 06:40 8,7 C 7,8 C 5,0 C 89 % 998,5 hPa 0,0 l/m 0 min 0 min 0 W/m 19,3 km/h (3 Bft) 95,74 %
23.11.2022 06:42 8,7 C 7,8 C 5,0 C 89 % 998,5 hPa 0,0 l/m 0 min 0 min 0 W/m 19,3 km/h (3 Bft) 97,83 %
23.11.2022 06:44 8,7 C 7,8 C 5,0 C 89 % 998,4 hPa 0,0 l/m 0 min 0 min 0 W/m 12,9 km/h (3 Bft) 93,62 %
23.11.2022 06:46 8,7 C 7,8 C 5,0 C 89 % 998,4 hPa 0,0 l/m 0 min 0 min 0 W/m 16,1 km/h (3 Bft) 97,87 %
23.11.2022 06:48 8,7 C 7,8 C 5,0 C 89 % 998,4 hPa 0,0 l/m 0 min 0 min 0 W/m 16,1 km/h (3 Bft) 95,74 %
23.11.2022 06:50 8,6 C 7,8 C 5,0 C 89 % 998,5 hPa 0,0 l/m 0 min 0 min 0 W/m 12,9 km/h (3 Bft) 95,74 %
23.11.2022 06:52 8,6 C 7,8 C 5,0 C 89 % 998,5 hPa 0,0 l/m 0 min 0 min 0 W/m 19,3 km/h (3 Bft) 95,74 %
23.11.2022 06:54 8,6 C 7,8 C 5,0 C 89 % 998,5 hPa 0,0 l/m 0 min 0 min 0 W/m 6,4 km/h (2 Bft) 95,65 %
23.11.2022 06:56 8,6 C 7,8 C 5,0 C 89 % 998,5 hPa 0,0 l/m 0 min 0 min 0 W/m 12,9 km/h (3 Bft) 95,74 %
23.11.2022 06:58 8,6 C 7,8 C 5,0 C 89 % 998,5 hPa 0,0 l/m 0 min 0 min 0 W/m 16,1 km/h (3 Bft) 91,49 %
23.11.2022 07:00 8,6 C 7,8 C 5,0 C 90 % 998,5 hPa 0,0 l/m 0 min 0 min 0 W/m 16,1 km/h (3 Bft) 95,74 %
23.11.2022 07:02 8,6 C 7,8 C 5,0 C 89 % 998,5 hPa 0,0 l/m 0 min 0 min 0 W/m 12,9 km/h (3 Bft) 97,87 %
23.11.2022 07:04 8,6 C 7,8 C 5,0 C 89 % 998,5 hPa 0,0 l/m 0 min 0 min 0 W/m 16,1 km/h (3 Bft) 97,92 %
23.11.2022 07:06 8,6 C 7,8 C 5,0 C 89 % 998,4 hPa 0,0 l/m 0 min 0 min 0 W/m 12,9 km/h (3 Bft) 97,87 %
23.11.2022 07:08 8,6 C 7,8 C 5,0 C 89 % 998,4 hPa 0,0 l/m 0 min 0 min 0 W/m 6,4 km/h (2 Bft) 97,87 %
23.11.2022 07:10 8,6 C 7,8 C 5,0 C 89 % 998,4 hPa 0,0 l/m 0 min 0 min 0 W/m 12,9 km/h (3 Bft) 95,65 %
23.11.2022 07:12 8,6 C 7,8 C 5,0 C 89 % 998,5 hPa 0,0 l/m 0 min 0 min 0 W/m 12,9 km/h (3 Bft) 97,87 %
23.11.2022 07:14 8,6 C 7,8 C 5,0 C 89 % 998,5 hPa 0,0 l/m 0 min 0 min 0 W/m 6,4 km/h (2 Bft) 97,87 %
23.11.2022 07:16 8,6 C 7,8 C 5,0 C 89 % 998,5 hPa 0,0 l/m 0 min 0 min 0 W/m 16,1 km/h (3 Bft) 95,74 %
23.11.2022 07:18 8,6 C 7,8 C 5,0 C 90 % 998,4 hPa 0,0 l/m 0 min 0 min 0 W/m 9,7 km/h (2 Bft) 97,87 %
23.11.2022 07:20 8,6 C 7,8 C 5,0 C 90 % 998,5 hPa 0,0 l/m 0 min 0 min 0 W/m 6,4 km/h (2 Bft) 97,87 %
23.11.2022 07:22 8,6 C 7,8 C 5,0 C 90 % 998,5 hPa 0,0 l/m 0 min 0 min 0 W/m 6,4 km/h (2 Bft) 97,83 %
23.11.2022 07:24 8,6 C 7,8 C 5,0 C 90 % 998,5 hPa 0,0 l/m 0 min 0 min 0 W/m 6,4 km/h (2 Bft) 95,74 %
23.11.2022 07:26 8,6 C 7,8 C 5,0 C 90 % 998,5 hPa 0,0 l/m 0 min 0 min 0 W/m 6,4 km/h (2 Bft) 95,74 %
23.11.2022 07:28 8,6 C 7,8 C 5,0 C 90 % 998,5 hPa 0,0 l/m 0 min 0 min 0 W/m 12,9 km/h (3 Bft) 95,74 %
23.11.2022 07:30 8,6 C 7,8 C 5,0 C 90 % 998,5 hPa 0,0 l/m 0 min 0 min 0 W/m 19,3 km/h (3 Bft) 95,74 %
23.11.2022 07:32 8,6 C 7,8 C 5,0 C 90 % 998,5 hPa 0,0 l/m 0 min 0 min 0 W/m 12,9 km/h (3 Bft) 95,74 %
23.11.2022 07:34 8,6 C 7,8 C 5,0 C 90 % 998,5 hPa 0,0 l/m 0 min 0 min 0 W/m 6,4 km/h (2 Bft) 95,65 %
23.11.2022 07:36 8,6 C 7,8 C 5,0 C 90 % 998,6 hPa 0,0 l/m 0 min 0 min 0 W/m 16,1 km/h (3 Bft) 95,74 %
23.11.2022 07:38 8,6 C 7,8 C 5,0 C 90 % 998,5 hPa 0,0 l/m 0 min 0 min 0 W/m 9,7 km/h (2 Bft) 97,87 %
23.11.2022 07:40 8,6 C 7,8 C 5,0 C 90 % 998,5 hPa 0,0 l/m 0 min 0 min 0 W/m 6,4 km/h (2 Bft) 93,62 %
23.11.2022 07:42 8,6 C 7,8 C 5,0 C 90 % 998,6 hPa 0,0 l/m 0 min 0 min 0 W/m 6,4 km/h (2 Bft) 95,74 %
23.11.2022 07:44 8,5 C 7,8 C 5,0 C 90 % 998,6 hPa 0,0 l/m 0 min 0 min 0 W/m 12,9 km/h (3 Bft) 97,87 %
23.11.2022 07:46 8,5 C 7,8 C 5,0 C 90 % 998,6 hPa 0,0 l/m 0 min 0 min 0 W/m 12,9 km/h (3 Bft) 97,83 %
23.11.2022 07:48 8,5 C 7,8 C 5,0 C 90 % 998,5 hPa 0,0 l/m 0 min 0 min 0 W/m 6,4 km/h (2 Bft) 97,87 %
23.11.2022 07:50 8,5 C 7,8 C 5,0 C 90 % 998,6 hPa 0,0 l/m 0 min 0 min 0 W/m 9,7 km/h (2 Bft) 97,87 %
23.11.2022 07:52 8,4 C 7,8 C 5,0 C 90 % 998,6 hPa 0,0 l/m 0 min 0 min 0 W/m 6,4 km/h (2 Bft) 95,74 %
23.11.2022 07:54 8,4 C 7,8 C 5,0 C 90 % 998,6 hPa 0,0 l/m 0 min 0 min 0 W/m 12,9 km/h (3 Bft) 97,87 %
23.11.2022 07:56 8,4 C 7,8 C 5,0 C 90 % 998,6 hPa 0,0 l/m 0 min 0 min 0 W/m 16,1 km/h (3 Bft) 100,00 %
23.11.2022 07:58 8,4 C 7,8 C 5,0 C 90 % 998,6 hPa 0,0 l/m 0 min 0 min 0 W/m 16,1 km/h (3 Bft) 100,00 %
23.11.2022 08:00 8,4 C 7,8 C 5,0 C 90 % 998,6 hPa 0,0 l/m 0 min 0 min 0 W/m 19,3 km/h (3 Bft) 97,87 %
23.11.2022 08:02 8,4 C 7,8 C 5,0 C 90 % 998,7 hPa 0,0 l/m 0 min 0 min 0 W/m 6,4 km/h (2 Bft) 97,87 %
23.11.2022 08:04 8,4 C 7,8 C 5,0 C 90 % 998,7 hPa 0,0 l/m 0 min 0 min 0 W/m 16,1 km/h (3 Bft) 100,00 %
23.11.2022 08:06 8,4 C 7,8 C 5,0 C 90 % 998,7 hPa 0,0 l/m 0 min 0 min 0 W/m 6,4 km/h (2 Bft) 97,87 %
23.11.2022 08:08 8,4 C 7,8 C 5,0 C 90 % 998,6 hPa 0,0 l/m 0 min 0 min 0 W/m 6,4 km/h (2 Bft) 100,00 %
23.11.2022 08:10 8,4 C 7,8 C 5,0 C 90 % 998,7 hPa 0,0 l/m 0 min 0 min 0 W/m 6,4 km/h (2 Bft) 100,00 %
23.11.2022 08:12 8,4 C 7,8 C 5,0 C 91 % 998,7 hPa 0,0 l/m 0 min 0 min 0 W/m 6,4 km/h (2 Bft) 97,87 %
23.11.2022 08:14 8,4 C 7,8 C 5,0 C 91 % 998,7 hPa 0,0 l/m 0 min 0 min 5 W/m 6,4 km/h (2 Bft) 97,87 %
23.11.2022 08:16 8,4 C 7,8 C 5,0 C 91 % 998,8 hPa 0,0 l/m 0 min 0 min 5 W/m 12,9 km/h (3 Bft) 100,00 %
23.11.2022 08:18 8,4 C 7,8 C 5,0 C 91 % 998,7 hPa 0,0 l/m 0 min 0 min 5 W/m 12,9 km/h (3 Bft) 95,74 %
23.11.2022 08:20 8,4 C 7,8 C 5,0 C 91 % 998,7 hPa 0,0 l/m 0 min 0 min 5 W/m 6,4 km/h (2 Bft) 100,00 %
23.11.2022 08:22 8,3 C 7,8 C 4,4 C 91 % 998,7 hPa 0,0 l/m 0 min 0 min 6 W/m 12,9 km/h (3 Bft) 100,00 %
23.11.2022 08:24 8,3 C 7,8 C 4,4 C 91 % 998,8 hPa 0,0 l/m 0 min 0 min 8 W/m 12,9 km/h (3 Bft) 97,87 %
23.11.2022 08:26 8,3 C 7,8 C 5,0 C 91 % 998,7 hPa 0,0 l/m 0 min 0 min 9 W/m 16,1 km/h (3 Bft) 100,00 %
23.11.2022 08:28 8,3 C 7,8 C 5,0 C 91 % 998,7 hPa 0,0 l/m 0 min 0 min 10 W/m 6,4 km/h (2 Bft) 100,00 %
23.11.2022 08:30 8,3 C 7,8 C 5,0 C 91 % 998,8 hPa 0,0 l/m 0 min 0 min 11 W/m 22,5 km/h (4 Bft) 97,87 %
23.11.2022 08:32 8,3 C 7,8 C 5,0 C 91 % 998,8 hPa 0,0 l/m 0 min 0 min 12 W/m 16,1 km/h (3 Bft) 100,00 %
23.11.2022 08:34 8,3 C 7,8 C 5,0 C 91 % 998,8 hPa 0,0 l/m 0 min 0 min 12 W/m 12,9 km/h (3 Bft) 100,00 %
23.11.2022 08:36 8,3 C 7,8 C 5,0 C 91 % 998,8 hPa 0,0 l/m 0 min 0 min 14 W/m 16,1 km/h (3 Bft) 95,74 %
23.11.2022 08:38 8,3 C 7,8 C 5,0 C 91 % 998,8 hPa 0,0 l/m 0 min 0 min 16 W/m 12,9 km/h (3 Bft) 100,00 %
23.11.2022 08:40 8,3 C 7,8 C 5,0 C 91 % 998,9 hPa 0,0 l/m 0 min 0 min 18 W/m 16,1 km/h (3 Bft) 100,00 %
23.11.2022 08:42 8,3 C 7,8 C 5,0 C 91 % 999,0 hPa 0,0 l/m 0 min 0 min 19 W/m 6,4 km/h (2 Bft) 97,87 %
23.11.2022 08:44 8,3 C 7,8 C 5,0 C 91 % 998,9 hPa 0,0 l/m 0 min 0 min 19 W/m 6,4 km/h (2 Bft) 100,00 %
23.11.2022 08:46 8,3 C 7,8 C 5,0 C 91 % 999,0 hPa 0,0 l/m 0 min 0 min 22 W/m 12,9 km/h (3 Bft) 97,87 %
23.11.2022 08:48 8,3 C 7,8 C 5,0 C 91 % 999,1 hPa 0,0 l/m 0 min 0 min 25 W/m 6,4 km/h (2 Bft) 97,83 %
23.11.2022 08:50 8,3 C 7,8 C 5,0 C 91 % 999,1 hPa 0,0 l/m 0 min 0 min 26 W/m 12,9 km/h (3 Bft) 97,87 %
23.11.2022 08:52 8,3 C 7,8 C 5,0 C 91 % 999,0 hPa 0,0 l/m 0 min 0 min 29 W/m 6,4 km/h (2 Bft) 95,74 %
23.11.2022 08:54 8,3 C 7,8 C 5,0 C 91 % 999,0 hPa 0,0 l/m 0 min 0 min 30 W/m 6,4 km/h (2 Bft) 95,74 %
23.11.2022 08:56 8,3 C 7,8 C 5,0 C 91 % 999,0 hPa 0,0 l/m 0 min 0 min 31 W/m 12,9 km/h (3 Bft) 97,87 %
23.11.2022 08:58 8,3 C 7,8 C 5,0 C 90 % 999,1 hPa 0,0 l/m 0 min 0 min 33 W/m 12,9 km/h (3 Bft) 97,87 %
23.11.2022 09:00 8,3 C 7,8 C 5,0 C 90 % 999,1 hPa 0,0 l/m 0 min 0 min 32 W/m 25,7 km/h (4 Bft) 95,65 %
23.11.2022 09:02 8,3 C 7,8 C 5,0 C 90 % 999,0 hPa 0,0 l/m 0 min 0 min 32 W/m 19,3 km/h (3 Bft) 97,87 %
23.11.2022 09:04 8,3 C 7,8 C 5,0 C 89 % 999,1 hPa 0,0 l/m 0 min 0 min 30 W/m 22,5 km/h (4 Bft) 93,02 %
23.11.2022 09:06 8,3 C 7,8 C 5,0 C 89 % 999,1 hPa 0,0 l/m 0 min 0 min 31 W/m 12,9 km/h (3 Bft) 96,55 %
23.11.2022 09:08 8,4 C 7,8 C 5,0 C 89 % 999,1 hPa 0,0 l/m 0 min 0 min 32 W/m 19,3 km/h (3 Bft) 91,43 %
23.11.2022 09:10 8,4 C 7,8 C 5,0 C 88 % 999,2 hPa 0,0 l/m 0 min 0 min 33 W/m 12,9 km/h (3 Bft) 97,87 %
23.11.2022 09:12 8,4 C 7,8 C 5,0 C 88 % 999,2 hPa 0,0 l/m 0 min 0 min 38 W/m 12,9 km/h (3 Bft) 95,74 %
23.11.2022 09:14 8,4 C 7,8 C 5,0 C 88 % 999,2 hPa 0,0 l/m 0 min 0 min 36 W/m 16,1 km/h (3 Bft) 95,74 %
23.11.2022 09:16 8,4 C 7,8 C 5,0 C 87 % 999,2 hPa 0,0 l/m 0 min 0 min 30 W/m 16,1 km/h (3 Bft) 97,87 %
23.11.2022 09:18 8,4 C 7,8 C 5,0 C 87 % 999,2 hPa 0,0 l/m 0 min 0 min 28 W/m 16,1 km/h (3 Bft) 95,74 %
23.11.2022 09:20 8,5 C 8,3 C 5,0 C 87 % 999,2 hPa 0,0 l/m 0 min 0 min 28 W/m 19,3 km/h (3 Bft) 89,13 %
23.11.2022 09:22 8,5 C 7,8 C 5,0 C 87 % 999,2 hPa 0,0 l/m 0 min 0 min 28 W/m 12,9 km/h (3 Bft) 57,45 %
23.11.2022 09:24 8,6 C 8,3 C 5,0 C 86 % 999,2 hPa 0,0 l/m 0 min 0 min 29 W/m 19,3 km/h (3 Bft) 87,50 %
23.11.2022 09:26 8,6 C 8,3 C 5,0 C 86 % 999,2 hPa 0,0 l/m 0 min 0 min 30 W/m 12,9 km/h (3 Bft) 95,74 %
23.11.2022 09:28 8,6 C 8,3 C 5,0 C 86 % 999,3 hPa 0,0 l/m 0 min 0 min 33 W/m 12,9 km/h (3 Bft) 95,74 %
23.11.2022 09:30 8,6 C 8,3 C 5,0 C 86 % 999,4 hPa 0,0 l/m 0 min 0 min 37 W/m 16,1 km/h (3 Bft) 95,74 %
23.11.2022 09:32 8,6 C 8,3 C 5,0 C 85 % 999,3 hPa 0,0 l/m 0 min 0 min 50 W/m 16,1 km/h (3 Bft) 95,65 %
23.11.2022 09:34 8,6 C 8,3 C 5,0 C 85 % 999,3 hPa 0,0 l/m 2 min 0 min 106 W/m 22,5 km/h (4 Bft) 95,74 %
23.11.2022 09:36 8,6 C 8,3 C 5,0 C 85 % 999,3 hPa 0,0 l/m 2 min 0 min 97 W/m 19,3 km/h (3 Bft) 93,62 %
23.11.2022 09:38 8,7 C 8,3 C 5,0 C 85 % 999,3 hPa 0,0 l/m 0 min 0 min 82 W/m 19,3 km/h (3 Bft) 93,62 %
23.11.2022 09:40 8,7 C 8,3 C 5,0 C 85 % 999,3 hPa 0,0 l/m 2 min 0 min 125 W/m 22,5 km/h (4 Bft) 95,74 %
23.11.2022 09:42 8,7 C 8,3 C 5,0 C 85 % 999,4 hPa 0,0 l/m 2 min 0 min 154 W/m 19,3 km/h (3 Bft) 97,87 %
23.11.2022 09:44 8,7 C 8,3 C 5,0 C 85 % 999,4 hPa 0,0 l/m 2 min 0 min 160 W/m 22,5 km/h (4 Bft) 95,65 %
23.11.2022 09:46 8,7 C 8,3 C 5,0 C 84 % 999,4 hPa 0,0 l/m 2 min 0 min 123 W/m 22,5 km/h (4 Bft) 95,74 %
23.11.2022 09:48 8,7 C 8,3 C 5,0 C 84 % 999,4 hPa 0,0 l/m 0 min 0 min 80 W/m 29,0 km/h (5 Bft) 95,74 %
23.11.2022 09:50 8,8 C 8,3 C 5,0 C 84 % 999,5 hPa 0,0 l/m 2 min 0 min 145 W/m 19,3 km/h (3 Bft) 91,49 %
23.11.2022 09:52 8,8 C 8,3 C 5,0 C 84 % 999,5 hPa 0,0 l/m 2 min 0 min 178 W/m 16,1 km/h (3 Bft) 100,00 %
23.11.2022 09:54 8,8 C 8,3 C 5,0 C 84 % 999,5 hPa 0,0 l/m 2 min 0 min 183 W/m 19,3 km/h (3 Bft) 95,74 %
23.11.2022 09:56 8,8 C 8,3 C 5,0 C 84 % 999,5 hPa 0,0 l/m 2 min 0 min 187 W/m 19,3 km/h (3 Bft) 93,48 %
23.11.2022 09:58 8,8 C 8,3 C 5,0 C 84 % 999,5 hPa 0,0 l/m 2 min 0 min 192 W/m 19,3 km/h (3 Bft) 94,00 %
23.11.2022 10:00 8,8 C 8,3 C 5,0 C 84 % 999,5 hPa 0,0 l/m 2 min 0 min 189 W/m 19,3 km/h (3 Bft) 97,87 %
23.11.2022 10:02 8,9 C 8,3 C 5,0 C 83 % 999,5 hPa 0,0 l/m 2 min 0 min 198 W/m 22,5 km/h (4 Bft) 97,87 %
23.11.2022 10:04 8,9 C 8,3 C 5,0 C 83 % 999,5 hPa 0,0 l/m 2 min 0 min 202 W/m 16,1 km/h (3 Bft) 97,87 %
23.11.2022 10:06 8,9 C 8,3 C 5,0 C 83 % 999,5 hPa 0,0 l/m 2 min 0 min 206 W/m 16,1 km/h (3 Bft) 98,28 %
23.11.2022 10:08 9,0 C 8,3 C 5,0 C 83 % 999,5 hPa 0,0 l/m 2 min 0 min 212 W/m 16,1 km/h (3 Bft) 97,14 %
23.11.2022 10:10 9,0 C 8,3 C 5,0 C 83 % 999,5 hPa 0,0 l/m 2 min 0 min 214 W/m 22,5 km/h (4 Bft) 97,87 %
23.11.2022 10:12 9,1 C 8,3 C 5,0 C 83 % 999,5 hPa 0,0 l/m 2 min 0 min 217 W/m 16,1 km/h (3 Bft) 97,87 %
23.11.2022 10:14 9,1 C 8,3 C 5,0 C 83 % 999,5 hPa 0,0 l/m 2 min 0 min 220 W/m 16,1 km/h (3 Bft) 91,49 %
23.11.2022 10:16 9,2 C 8,9 C 5,0 C 82 % 999,6 hPa 0,0 l/m 2 min 0 min 223 W/m 12,9 km/h (3 Bft) 96,15 %
23.11.2022 10:18 9,2 C 8,9 C 5,0 C 83 % 999,6 hPa 0,0 l/m 2 min 0 min 227 W/m 12,9 km/h (3 Bft) 97,83 %
23.11.2022 10:20 9,3 C 8,9 C 5,0 C 82 % 999,5 hPa 0,0 l/m 2 min 0 min 229 W/m 16,1 km/h (3 Bft) 95,74 %
23.11.2022 10:22 9,4 C 8,9 C 5,0 C 82 % 999,6 hPa 0,0 l/m 2 min 0 min 232 W/m 19,3 km/h (3 Bft) 100,00 %
23.11.2022 10:24 9,4 C 8,9 C 5,0 C 82 % 999,6 hPa 0,0 l/m 2 min 0 min 236 W/m 12,9 km/h (3 Bft) 93,62 %
23.11.2022 10:26 9,5 C 8,9 C 5,0 C 82 % 999,5 hPa 0,0 l/m 2 min 0 min 239 W/m 22,5 km/h (4 Bft) 100,00 %
23.11.2022 10:28 9,6 C 8,9 C 5,0 C 82 % 999,5 hPa 0,0 l/m 2 min 0 min 241 W/m 12,9 km/h (3 Bft) 97,87 %
23.11.2022 10:30 9,6 C 8,9 C 5,0 C 82 % 999,5 hPa 0,0 l/m 2 min 0 min 234 W/m 16,1 km/h (3 Bft) 100,00 %
23.11.2022 10:32 9,7 C 8,9 C 5,0 C 82 % 999,5 hPa 0,0 l/m 2 min 0 min 213 W/m 25,7 km/h (4 Bft) 97,87 %
23.11.2022 10:37 9,7 C 8,9 C 5,0 C 82 % 999,5 hPa 0,0 l/m 5 min 0 min 247 W/m 22,5 km/h (4 Bft) 100,00 %
23.11.2022 10:38 9,8 C 8,9 C 5,0 C 82 % 999,5 hPa 0,0 l/m 1 min 0 min 245 W/m 19,3 km/h (3 Bft) 100,00 %
23.11.2022 10:40 9,8 C 8,9 C 5,0 C 82 % 999,5 hPa 0,0 l/m 2 min 0 min 219 W/m 12,9 km/h (3 Bft) 100,00 %
23.11.2022 10:42 9,8 C 8,9 C 5,0 C 82 % 999,5 hPa 0,0 l/m 2 min 0 min 225 W/m 19,3 km/h (3 Bft) 92,86 %
23.11.2022 10:44 9,8 C 8,9 C 5,6 C 82 % 999,6 hPa 0,0 l/m 2 min 0 min 212 W/m 29,0 km/h (5 Bft) 95,65 %
23.11.2022 10:46 9,8 C 8,9 C 5,6 C 81 % 999,5 hPa 0,0 l/m 0 min 0 min 86 W/m 29,0 km/h (5 Bft) 97,87 %
23.11.2022 10:48 9,8 C 8,9 C 5,6 C 81 % 999,5 hPa 0,0 l/m 0 min 0 min 126 W/m 16,1 km/h (3 Bft) 100,00 %
23.11.2022 10:50 9,8 C 9,4 C 5,6 C 82 % 999,5 hPa 0,0 l/m 2 min 0 min 157 W/m 12,9 km/h (3 Bft) 100,00 %
23.11.2022 10:52 9,8 C 9,4 C 5,6 C 82 % 999,5 hPa 0,0 l/m 0 min 0 min 97 W/m 22,5 km/h (4 Bft) 100,00 %
23.11.2022 10:54 9,8 C 9,4 C 5,6 C 81 % 999,5 hPa 0,0 l/m 0 min 0 min 98 W/m 19,3 km/h (3 Bft) 100,00 %
23.11.2022 10:56 9,8 C 9,4 C 5,6 C 81 % 999,5 hPa 0,0 l/m 0 min 0 min 48 W/m 12,9 km/h (3 Bft) 100,00 %
23.11.2022 10:58 9,8 C 9,4 C 5,6 C 81 % 999,5 hPa 0,0 l/m 0 min 0 min 47 W/m 12,9 km/h (3 Bft) 100,00 %
23.11.2022 11:00 9,8 C 9,4 C 5,6 C 81 % 999,5 hPa 0,0 l/m 0 min 0 min 56 W/m 22,5 km/h (4 Bft) 97,87 %
23.11.2022 11:02 9,8 C 9,4 C 5,6 C 80 % 999,5 hPa 0,0 l/m 0 min 0 min 44 W/m 25,7 km/h (4 Bft) 100,00 %
23.11.2022 11:04 9,8 C 9,4 C 5,6 C 80 % 999,5 hPa 0,0 l/m 0 min 0 min 42 W/m 16,1 km/h (3 Bft) 97,92 %
23.11.2022 11:06 9,8 C 9,4 C 5,6 C 79 % 999,5 hPa 0,0 l/m 0 min 0 min 42 W/m 22,5 km/h (4 Bft) 98,31 %
23.11.2022 11:08 9,8 C 9,4 C 5,6 C 79 % 999,6 hPa 0,0 l/m 0 min 0 min 42 W/m 19,3 km/h (3 Bft) 100,00 %
23.11.2022 11:10 9,8 C 9,4 C 5,6 C 79 % 999,5 hPa 0,0 l/m 0 min 0 min 44 W/m 29,0 km/h (5 Bft) 95,74 %
23.11.2022 11:12 9,8 C 9,4 C 5,6 C 79 % 999,5 hPa 0,0 l/m 0 min 0 min 45 W/m 25,7 km/h (4 Bft) 100,00 %
23.11.2022 11:14 9,8 C 9,4 C 5,6 C 79 % 999,4 hPa 0,0 l/m 0 min 0 min 45 W/m 19,3 km/h (3 Bft) 97,87 %
23.11.2022 11:16 9,8 C 9,4 C 5,6 C 79 % 999,4 hPa 0,0 l/m 0 min 0 min 44 W/m 32,2 km/h (5 Bft) 97,87 %
23.11.2022 11:18 9,8 C 9,4 C 5,6 C 79 % 999,4 hPa 0,0 l/m 0 min 0 min 43 W/m 19,3 km/h (3 Bft) 100,00 %
23.11.2022 11:20 9,8 C 9,4 C 5,6 C 79 % 999,4 hPa 0,0 l/m 0 min 0 min 48 W/m 16,1 km/h (3 Bft) 100,00 %
23.11.2022 11:22 9,8 C 9,4 C 5,6 C 79 % 999,3 hPa 0,0 l/m 0 min 0 min 47 W/m 16,1 km/h (3 Bft) 95,65 %
23.11.2022 11:24 9,8 C 9,4 C 5,6 C 78 % 999,3 hPa 0,0 l/m 0 min 0 min 40 W/m 22,5 km/h (4 Bft) 100,00 %
23.11.2022 11:26 9,8 C 9,4 C 5,6 C 78 % 999,3 hPa 0,0 l/m 0 min 0 min 40 W/m 12,9 km/h (3 Bft) 97,87 %
23.11.2022 11:28 9,8 C 9,4 C 5,6 C 78 % 999,2 hPa 0,0 l/m 0 min 0 min 40 W/m 19,3 km/h (3 Bft) 97,87 %
23.11.2022 11:30 9,8 C 9,4 C 5,6 C 78 % 999,1 hPa 0,0 l/m 0 min 0 min 40 W/m 25,7 km/h (4 Bft) 100,00 %
23.11.2022 11:32 9,8 C 9,4 C 5,6 C 78 % 999,1 hPa 0,0 l/m 0 min 0 min 39 W/m 22,5 km/h (4 Bft) 97,87 %
23.11.2022 11:34 9,9 C 9,4 C 5,6 C 78 % 999,1 hPa 0,0 l/m 0 min 0 min 40 W/m 16,1 km/h (3 Bft) 95,74 %
23.11.2022 11:36 9,8 C 9,4 C 5,6 C 78 % 999,1 hPa 0,0 l/m 0 min 0 min 40 W/m 22,5 km/h (4 Bft) 100,00 %
23.11.2022 11:38 9,8 C 9,4 C 5,6 C 79 % 999,1 hPa 0,0 l/m 0 min 0 min 39 W/m 32,2 km/h (5 Bft) 89,36 %
23.11.2022 11:40 9,8 C 9,4 C 5,6 C 79 % 999,1 hPa 0,0 l/m 0 min 0 min 39 W/m 22,5 km/h (4 Bft) 78,72 %
23.11.2022 11:42 9,8 C 9,4 C 5,6 C 79 % 998,9 hPa 0,0 l/m 0 min 0 min 39 W/m 22,5 km/h (4 Bft) 80,85 %
23.11.2022 11:44 9,8 C 9,4 C 5,6 C 79 % 999,0 hPa 0,0 l/m 0 min 0 min 39 W/m 16,1 km/h (3 Bft) 76,60 %
23.11.2022 11:46 9,8 C 9,4 C 5,6 C 79 % 998,9 hPa 0,0 l/m 0 min 0 min 39 W/m 22,5 km/h (4 Bft) 86,96 %
23.11.2022 11:48 9,9 C 9,4 C 5,6 C 79 % 998,8 hPa 0,0 l/m 0 min 0 min 39 W/m 16,1 km/h (3 Bft) 97,87 %
23.11.2022 11:50 9,9 C 9,4 C 5,6 C 79 % 998,8 hPa 0,0 l/m 0 min 0 min 39 W/m 25,7 km/h (4 Bft) 97,87 %
23.11.2022 11:52 9,9 C 9,4 C 5,6 C 79 % 998,7 hPa 0,0 l/m 0 min 0 min 39 W/m 19,3 km/h (3 Bft) 95,74 %
23.11.2022 11:54 9,9 C 9,4 C 5,6 C 79 % 998,7 hPa 0,0 l/m 0 min 0 min 39 W/m 19,3 km/h (3 Bft) 95,74 %
23.11.2022 11:56 9,9 C 9,4 C 5,6 C 79 % 998,7 hPa 0,0 l/m 0 min 0 min 39 W/m 16,1 km/h (3 Bft) 95,74 %
23.11.2022 11:58 9,9 C 9,4 C 5,6 C 79 % 998,7 hPa 0,0 l/m 0 min 0 min 39 W/m 19,3 km/h (3 Bft) 93,62 %
23.11.2022 12:00 9,9 C 9,4 C 5,6 C 79 % 998,7 hPa 0,0 l/m 0 min 0 min 39 W/m 22,5 km/h (4 Bft) 91,30 %
23.11.2022 12:02 9,9 C 9,4 C 5,6 C 79 % 998,6 hPa 0,0 l/m 0 min 0 min 39 W/m 25,7 km/h (4 Bft) 85,11 %
23.11.2022 12:04 9,9 C 9,4 C 5,6 C 79 % 998,6 hPa 0,0 l/m 0 min 0 min 39 W/m 25,7 km/h (4 Bft) 93,62 %
23.11.2022 12:08 9,9 C 9,4 C 5,6 C 79 % 998,6 hPa 0,0 l/m 0 min 0 min 39 W/m 19,3 km/h (3 Bft) 93,88 %
23.11.2022 12:10 9,9 C 9,4 C 5,6 C 79 % 998,5 hPa 0,0 l/m 0 min 0 min 39 W/m 25,7 km/h (4 Bft) 93,62 %
23.11.2022 12:12 10,0 C 9,4 C 5,6 C 79 % 998,5 hPa 0,0 l/m 0 min 0 min 39 W/m 19,3 km/h (3 Bft) 91,49 %
23.11.2022 12:14 10,0 C 9,4 C 5,6 C 79 % 998,4 hPa 0,0 l/m 0 min 0 min 39 W/m 29,0 km/h (5 Bft) 91,49 %
23.11.2022 12:16 10,0 C 9,4 C 5,6 C 79 % 998,4 hPa 0,0 l/m 0 min 0 min 43 W/m 25,7 km/h (4 Bft) 91,49 %
23.11.2022 12:18 10,0 C 9,4 C 5,6 C 79 % 998,4 hPa 0,0 l/m 0 min 0 min 40 W/m 16,1 km/h (3 Bft) 89,36 %
23.11.2022 12:20 10,0 C 9,4 C 5,6 C 79 % 998,4 hPa 0,0 l/m 0 min 0 min 39 W/m 22,5 km/h (4 Bft) 95,74 %
23.11.2022 12:22 10,1 C 9,4 C 5,6 C 79 % 998,4 hPa 0,0 l/m 0 min 0 min 39 W/m 25,7 km/h (4 Bft) 95,74 %
23.11.2022 12:24 10,1 C 9,4 C 5,6 C 79 % 998,4 hPa 0,0 l/m 0 min 0 min 40 W/m 19,3 km/h (3 Bft) 95,74 %
23.11.2022 12:26 10,1 C 9,4 C 5,6 C 78 % 998,4 hPa 0,0 l/m 0 min 0 min 40 W/m 22,5 km/h (4 Bft) 93,62 %
23.11.2022 12:28 10,1 C 9,4 C 5,6 C 78 % 998,4 hPa 0,0 l/m 0 min 0 min 42 W/m 22,5 km/h (4 Bft) 95,65 %
23.11.2022 12:30 10,1 C 9,4 C 5,6 C 78 % 998,3 hPa 0,0 l/m 0 min 0 min 41 W/m 16,1 km/h (3 Bft) 93,62 %
23.11.2022 12:32 10,1 C 9,4 C 5,6 C 78 % 998,4 hPa 0,0 l/m 0 min 0 min 42 W/m 22,5 km/h (4 Bft) 93,62 %
23.11.2022 12:34 10,1 C 9,4 C 5,6 C 78 % 998,5 hPa 0,0 l/m 0 min 0 min 40 W/m 12,9 km/h (3 Bft) 95,74 %
23.11.2022 12:36 10,1 C 9,4 C 5,6 C 79 % 998,4 hPa 0,0 l/m 0 min 0 min 49 W/m 22,5 km/h (4 Bft) 95,74 %
23.11.2022 12:38 10,1 C 9,4 C 5,6 C 78 % 998,4 hPa 0,0 l/m 0 min 0 min 76 W/m 16,1 km/h (3 Bft) 95,74 %
23.11.2022 12:40 10,1 C 9,4 C 5,6 C 78 % 998,3 hPa 0,0 l/m 0 min 0 min 106 W/m 25,7 km/h (4 Bft) 97,83 %
23.11.2022 12:42 10,0 C 9,4 C 5,6 C 78 % 998,4 hPa 0,0 l/m 0 min 0 min 121 W/m 25,7 km/h (4 Bft) 97,87 %
23.11.2022 12:44 10,0 C 9,4 C 6,1 C 78 % 998,4 hPa 0,0 l/m 0 min 0 min 126 W/m 29,0 km/h (5 Bft) 97,87 %
23.11.2022 12:46 10,0 C 10,0 C 6,1 C 78 % 998,4 hPa 0,0 l/m 0 min 0 min 134 W/m 19,3 km/h (3 Bft) 97,87 %
23.11.2022 12:48 10,1 C 10,0 C 6,1 C 78 % 998,4 hPa 0,0 l/m 0 min 0 min 132 W/m 32,2 km/h (5 Bft) 91,49 %
23.11.2022 12:50 10,1 C 10,0 C 6,1 C 78 % 998,4 hPa 0,0 l/m 0 min 0 min 129 W/m 22,5 km/h (4 Bft) 100,00 %
23.11.2022 12:52 10,1 C 10,0 C 6,1 C 78 % 998,3 hPa 0,0 l/m 0 min 0 min 133 W/m 22,5 km/h (4 Bft) 97,83 %
23.11.2022 12:54 10,1 C 10,0 C 6,1 C 78 % 998,4 hPa 0,0 l/m 0 min 0 min 147 W/m 22,5 km/h (4 Bft) 100,00 %
23.11.2022 12:56 10,1 C 10,0 C 6,1 C 78 % 998,3 hPa 0,0 l/m 0 min 0 min 132 W/m 19,3 km/h (3 Bft) 95,74 %
23.11.2022 12:58 10,1 C 10,0 C 6,1 C 78 % 998,3 hPa 0,0 l/m 0 min 0 min 122 W/m 25,7 km/h (4 Bft) 100,00 %
23.11.2022 13:00 10,1 C 10,0 C 6,1 C 78 % 998,3 hPa 0,0 l/m 0 min 0 min 107 W/m 19,3 km/h (3 Bft) 100,00 %
23.11.2022 13:02 10,1 C 10,0 C 6,1 C 78 % 998,3 hPa 0,0 l/m 0 min 0 min 118 W/m 22,5 km/h (4 Bft) 100,00 %
23.11.2022 13:04 10,1 C 10,0 C 6,1 C 78 % 998,3 hPa 0,0 l/m 0 min 0 min 121 W/m 22,5 km/h (4 Bft) 100,00 %
23.11.2022 13:06 10,1 C 10,0 C 6,1 C 78 % 998,3 hPa 0,0 l/m 0 min 0 min 127 W/m 19,3 km/h (3 Bft) 100,00 %
23.11.2022 13:08 10,1 C 10,0 C 6,1 C 78 % 998,3 hPa 0,0 l/m 0 min 0 min 134 W/m 16,1 km/h (3 Bft) 100,00 %
23.11.2022 13:10 10,1 C 10,0 C 6,1 C 78 % 998,3 hPa 0,0 l/m 0 min 0 min 131 W/m 19,3 km/h (3 Bft) 100,00 %
23.11.2022 13:12 10,1 C 10,0 C 6,1 C 79 % 998,3 hPa 0,0 l/m 0 min 0 min 141 W/m 25,7 km/h (4 Bft) 97,87 %
23.11.2022 13:14 10,1 C 10,0 C 6,1 C 79 % 998,3 hPa 0,0 l/m 0 min 0 min 139 W/m 25,7 km/h (4 Bft) 97,83 %
23.11.2022 13:16 10,1 C 10,0 C 6,1 C 79 % 998,3 hPa 0,0 l/m 0 min 0 min 121 W/m 16,1 km/h (3 Bft) 100,00 %
23.11.2022 13:18 10,1 C 10,0 C 6,1 C 79 % 998,3 hPa 0,0 l/m 0 min 0 min 128 W/m 22,5 km/h (4 Bft) 100,00 %
23.11.2022 13:20 10,1 C 10,0 C 6,1 C 79 % 998,3 hPa 0,0 l/m 2 min 0 min 156 W/m 25,7 km/h (4 Bft) 100,00 %
23.11.2022 13:22 10,1 C 10,0 C 6,1 C 79 % 998,3 hPa 0,0 l/m 2 min 0 min 164 W/m 22,5 km/h (4 Bft) 100,00 %
23.11.2022 13:24 10,1 C 10,0 C 6,1 C 79 % 998,3 hPa 0,0 l/m 2 min 0 min 156 W/m 29,0 km/h (5 Bft) 100,00 %
23.11.2022 13:26 10,1 C 10,0 C 6,1 C 78 % 998,3 hPa 0,0 l/m 0 min 0 min 110 W/m 16,1 km/h (3 Bft) 100,00 %
23.11.2022 13:28 10,1 C 10,0 C 5,6 C 78 % 998,3 hPa 0,0 l/m 0 min 0 min 100 W/m 29,0 km/h (5 Bft) 100,00 %
23.11.2022 13:30 10,1 C 10,0 C 5,6 C 78 % 998,2 hPa 0,0 l/m 2 min 0 min 161 W/m 16,1 km/h (3 Bft) 97,87 %
23.11.2022 13:32 10,1 C 10,0 C 5,6 C 78 % 998,1 hPa 0,0 l/m 2 min 0 min 163 W/m 12,9 km/h (3 Bft) 100,00 %
23.11.2022 13:34 10,0 C 10,0 C 5,6 C 78 % 998,1 hPa 0,0 l/m 0 min 0 min 90 W/m 19,3 km/h (3 Bft) 100,00 %
23.11.2022 13:36 10,0 C 11,1 C 5,6 C 78 % 998,0 hPa 0,0 l/m 0 min 0 min 115 W/m 16,1 km/h (3 Bft) 97,87 %
23.11.2022 13:38 10,1 C 12,2 C 5,6 C 79 % 998,1 hPa 0,0 l/m 2 min 0 min 317 W/m 16,1 km/h (3 Bft) 100,00 %
23.11.2022 13:40 10,1 C 12,2 C 5,6 C 79 % 998,0 hPa 0,0 l/m 2 min 0 min 310 W/m 29,0 km/h (5 Bft) 100,00 %
23.11.2022 13:42 10,1 C 11,7 C 5,6 C 79 % 998,0 hPa 0,0 l/m 2 min 0 min 290 W/m 22,5 km/h (4 Bft) 97,87 %
23.11.2022 13:44 10,2 C 11,7 C 5,6 C 78 % 997,9 hPa 0,0 l/m 2 min 0 min 287 W/m 25,7 km/h (4 Bft) 100,00 %
23.11.2022 13:46 10,2 C 11,7 C 5,6 C 78 % 997,9 hPa 0,0 l/m 2 min 0 min 282 W/m 22,5 km/h (4 Bft) 97,87 %
23.11.2022 13:48 10,2 C 11,7 C 5,6 C 78 % 997,8 hPa 0,0 l/m 2 min 0 min 271 W/m 25,7 km/h (4 Bft) 97,87 %
23.11.2022 13:50 10,2 C 10,6 C 5,6 C 78 % 997,8 hPa 0,0 l/m 2 min 0 min 270 W/m 29,0 km/h (5 Bft) 95,65 %
23.11.2022 13:52 10,2 C 10,6 C 5,6 C 78 % 997,7 hPa 0,0 l/m 2 min 0 min 248 W/m 25,7 km/h (4 Bft) 97,87 %
23.11.2022 13:54 10,2 C 10,0 C 5,6 C 78 % 997,7 hPa 0,0 l/m 2 min 0 min 147 W/m 29,0 km/h (5 Bft) 95,74 %
23.11.2022 13:56 10,2 C 10,0 C 5,6 C 78 % 997,6 hPa 0,0 l/m 2 min 0 min 173 W/m 19,3 km/h (3 Bft) 97,87 %
23.11.2022 13:58 10,2 C 10,0 C 5,6 C 78 % 997,7 hPa 0,0 l/m 2 min 0 min 242 W/m 29,0 km/h (5 Bft) 97,87 %
23.11.2022 14:00 10,2 C 10,0 C 5,6 C 78 % 997,7 hPa 0,0 l/m 2 min 0 min 241 W/m 19,3 km/h (3 Bft) 97,87 %
23.11.2022 14:02 10,2 C 10,0 C 5,6 C 78 % 997,7 hPa 0,0 l/m 2 min 0 min 245 W/m 25,7 km/h (4 Bft) 95,65 %
23.11.2022 14:04 10,2 C 10,0 C 5,6 C 78 % 997,7 hPa 0,0 l/m 2 min 0 min 245 W/m 35,4 km/h (5 Bft) 97,87 %
23.11.2022 14:06 10,2 C 10,0 C 5,6 C 78 % 997,7 hPa 0,0 l/m 2 min 0 min 234 W/m 16,1 km/h (3 Bft) 97,87 %
23.11.2022 14:08 10,2 C 10,0 C 5,6 C 78 % 997,7 hPa 0,0 l/m 2 min 0 min 242 W/m 38,6 km/h (5 Bft) 97,87 %
23.11.2022 14:10 10,2 C 10,0 C 5,6 C 78 % 997,7 hPa 0,0 l/m 2 min 0 min 239 W/m 25,7 km/h (4 Bft) 97,87 %
23.11.2022 14:12 10,2 C 10,6 C 5,6 C 78 % 997,7 hPa 0,0 l/m 2 min 0 min 244 W/m 25,7 km/h (4 Bft) 97,87 %
23.11.2022 14:14 10,2 C 10,6 C 5,6 C 78 % 997,6 hPa 0,0 l/m 2 min 0 min 240 W/m 22,5 km/h (4 Bft) 95,65 %
23.11.2022 14:16 10,2 C 10,6 C 5,6 C 78 % 997,6 hPa 0,0 l/m 2 min 0 min 221 W/m 29,0 km/h (5 Bft) 97,87 %
23.11.2022 14:18 10,2 C 10,6 C 5,6 C 78 % 997,7 hPa 0,0 l/m 2 min 0 min 163 W/m 38,6 km/h (5 Bft) 97,14 %
23.11.2022 14:20 10,2 C 10,6 C 5,6 C 77 % 997,6 hPa 0,0 l/m 2 min 0 min 169 W/m 29,0 km/h (5 Bft) 98,31 %
23.11.2022 14:22 10,2 C 10,0 C 5,6 C 77 % 997,6 hPa 0,0 l/m 2 min 0 min 196 W/m 25,7 km/h (4 Bft) 97,87 %
23.11.2022 14:24 10,2 C 10,6 C 5,6 C 78 % 997,6 hPa 0,0 l/m 2 min 0 min 158 W/m 22,5 km/h (4 Bft) 97,87 %
23.11.2022 14:26 10,2 C 10,6 C 5,6 C 78 % 997,6 hPa 0,0 l/m 2 min 0 min 133 W/m 22,5 km/h (4 Bft) 95,65 %
23.11.2022 14:28 10,2 C 10,0 C 5,6 C 77 % 997,6 hPa 0,0 l/m 2 min 0 min 134 W/m 25,7 km/h (4 Bft) 93,62 %
23.11.2022 14:30 10,2 C 10,0 C 5,6 C 77 % 997,6 hPa 0,0 l/m 2 min 0 min 113 W/m 25,7 km/h (4 Bft) 93,62 %
23.11.2022 14:32 10,2 C 10,0 C 5,6 C 77 % 997,7 hPa 0,0 l/m 0 min 0 min 102 W/m 25,7 km/h (4 Bft) 95,74 %
23.11.2022 14:34 10,1 C 10,0 C 5,6 C 77 % 997,6 hPa 0,0 l/m 2 min 0 min 114 W/m 22,5 km/h (4 Bft) 97,14 %
23.11.2022 14:36 10,1 C 10,0 C 5,6 C 78 % 997,6 hPa 0,0 l/m 2 min 0 min 113 W/m 16,1 km/h (3 Bft) 93,22 %
23.11.2022 14:38 10,1 C 10,0 C 5,6 C 78 % 997,6 hPa 0,0 l/m 0 min 0 min 81 W/m 19,3 km/h (3 Bft) 97,83 %
23.11.2022 14:40 10,1 C 10,0 C 5,6 C 78 % 997,6 hPa 0,0 l/m 0 min 0 min 87 W/m 25,7 km/h (4 Bft) 97,87 %
23.11.2022 14:42 10,1 C 10,6 C 5,6 C 77 % 997,6 hPa 0,0 l/m 2 min 0 min 135 W/m 25,7 km/h (4 Bft) 94,29 %
23.11.2022 14:44 10,0 C 11,1 C 5,6 C 78 % 997,6 hPa 0,0 l/m 2 min 0 min 149 W/m 16,1 km/h (3 Bft) 98,31 %
23.11.2022 14:46 10,0 C 10,6 C 5,6 C 78 % 997,6 hPa 0,0 l/m 2 min 0 min 136 W/m 19,3 km/h (3 Bft) 95,74 %
23.11.2022 14:48 10,0 C 10,0 C 5,6 C 77 % 997,5 hPa 0,0 l/m 0 min 0 min 92 W/m 25,7 km/h (4 Bft) 91,49 %
23.11.2022 14:50 9,9 C 9,4 C 5,6 C 77 % 997,5 hPa 0,0 l/m 0 min 0 min 69 W/m 22,5 km/h (4 Bft) 97,14 %
23.11.2022 14:52 9,9 C 9,4 C 5,6 C 77 % 997,5 hPa 0,0 l/m 0 min 0 min 80 W/m 16,1 km/h (3 Bft) 93,62 %
23.11.2022 14:54 9,9 C 9,4 C 5,6 C 77 % 997,4 hPa 0,0 l/m 0 min 0 min 93 W/m 25,7 km/h (4 Bft) 96,55 %
23.11.2022 14:56 9,9 C 9,4 C 5,6 C 77 % 997,4 hPa 0,0 l/m 2 min 0 min 115 W/m 25,7 km/h (4 Bft) 95,74 %
23.11.2022 14:58 9,9 C 9,4 C 5,6 C 77 % 997,5 hPa 0,0 l/m 0 min 0 min 78 W/m 16,1 km/h (3 Bft) 95,74 %
23.11.2022 15:00 9,9 C 9,4 C 5,6 C 78 % 997,5 hPa 0,0 l/m 0 min 0 min 57 W/m 19,3 km/h (3 Bft) 93,62 %
23.11.2022 15:02 9,8 C 9,4 C 5,6 C 78 % 997,5 hPa 0,0 l/m 0 min 0 min 56 W/m 22,5 km/h (4 Bft) 91,43 %
23.11.2022 15:04 9,8 C 9,4 C 5,6 C 78 % 997,5 hPa 0,0 l/m 0 min 0 min 56 W/m 19,3 km/h (3 Bft) 95,83 %
23.11.2022 15:06 9,8 C 9,4 C 5,6 C 78 % 997,5 hPa 0,0 l/m 0 min 0 min 58 W/m 22,5 km/h (4 Bft) 93,10 %
23.11.2022 15:08 9,8 C 9,4 C 5,6 C 78 % 997,5 hPa 0,0 l/m 0 min 0 min 58 W/m 16,1 km/h (3 Bft) 97,22 %
23.11.2022 15:10 9,8 C 9,4 C 5,6 C 78 % 997,5 hPa 0,0 l/m 0 min 0 min 54 W/m 19,3 km/h (3 Bft) 96,55 %
23.11.2022 15:12 9,8 C 8,9 C 5,6 C 78 % 997,5 hPa 0,0 l/m 0 min 0 min 48 W/m 16,1 km/h (3 Bft) 97,14 %
23.11.2022 15:14 9,7 C 8,9 C 5,6 C 78 % 997,5 hPa 0,0 l/m 0 min 0 min 44 W/m 22,5 km/h (4 Bft) 98,31 %
23.11.2022 15:16 9,7 C 8,9 C 5,6 C 78 % 997,5 hPa 0,0 l/m 0 min 0 min 42 W/m 25,7 km/h (4 Bft) 95,74 %
23.11.2022 15:18 9,7 C 8,9 C 5,6 C 78 % 997,5 hPa 0,0 l/m 0 min 0 min 41 W/m 12,9 km/h (3 Bft) 97,14 %
23.11.2022 15:20 9,7 C 8,9 C 5,6 C 78 % 997,5 hPa 0,0 l/m 0 min 0 min 39 W/m 19,3 km/h (3 Bft) 95,83 %
23.11.2022 15:22 9,7 C 8,9 C 5,6 C 79 % 997,6 hPa 0,0 l/m 0 min 0 min 38 W/m 19,3 km/h (3 Bft) 97,87 %
23.11.2022 15:24 9,6 C 8,9 C 5,0 C 79 % 997,5 hPa 0,0 l/m 0 min 0 min 37 W/m 16,1 km/h (3 Bft) 97,87 %
23.11.2022 15:26 9,6 C 8,9 C 5,6 C 79 % 997,5 hPa 0,0 l/m 0 min 0 min 35 W/m 22,5 km/h (4 Bft) 100,00 %
23.11.2022 15:28 9,6 C 8,9 C 5,6 C 79 % 997,4 hPa 0,0 l/m 0 min 0 min 33 W/m 16,1 km/h (3 Bft) 100,00 %
23.11.2022 15:30 9,6 C 8,9 C 5,6 C 79 % 997,4 hPa 0,0 l/m 0 min 0 min 33 W/m 19,3 km/h (3 Bft) 100,00 %
23.11.2022 15:32 9,6 C 8,9 C 5,0 C 80 % 997,4 hPa 0,0 l/m 0 min 0 min 35 W/m 16,1 km/h (3 Bft) 100,00 %
23.11.2022 15:34 9,6 C 8,9 C 5,0 C 80 % 997,4 hPa 0,0 l/m 0 min 0 min 39 W/m 16,1 km/h (3 Bft) 100,00 %
23.11.2022 15:36 9,6 C 8,9 C 5,0 C 80 % 997,5 hPa 0,0 l/m 0 min 0 min 41 W/m 19,3 km/h (3 Bft) 100,00 %
23.11.2022 15:38 9,6 C 8,9 C 5,6 C 80 % 997,5 hPa 0,0 l/m 0 min 0 min 45 W/m 12,9 km/h (3 Bft) 97,87 %
23.11.2022 15:40 9,6 C 8,9 C 5,6 C 80 % 997,5 hPa 0,0 l/m 0 min 0 min 47 W/m 16,1 km/h (3 Bft) 100,00 %
23.11.2022 15:42 9,6 C 8,9 C 5,6 C 80 % 997,6 hPa 0,0 l/m 0 min 0 min 46 W/m 29,0 km/h (5 Bft) 97,87 %
23.11.2022 15:44 9,6 C 8,9 C 5,6 C 80 % 997,7 hPa 0,0 l/m 0 min 0 min 38 W/m 16,1 km/h (3 Bft) 100,00 %
23.11.2022 15:46 9,6 C 8,9 C 5,6 C 80 % 997,7 hPa 0,0 l/m 0 min 0 min 33 W/m 16,1 km/h (3 Bft) 97,87 %
23.11.2022 15:48 9,6 C 8,9 C 5,6 C 80 % 997,8 hPa 0,0 l/m 0 min 0 min 29 W/m 19,3 km/h (3 Bft) 100,00 %
23.11.2022 15:50 9,6 C 8,9 C 5,6 C 80 % 997,8 hPa 0,0 l/m 0 min 0 min 24 W/m 22,5 km/h (4 Bft) 100,00 %
23.11.2022 15:52 9,6 C 8,9 C 5,6 C 80 % 997,9 hPa 0,0 l/m 0 min 0 min 20 W/m 16,1 km/h (3 Bft) 100,00 %
23.11.2022 15:54 9,6 C 8,9 C 5,6 C 80 % 997,9 hPa 0,0 l/m 0 min 0 min 18 W/m 16,1 km/h (3 Bft) 97,87 %
23.11.2022 15:56 9,6 C 8,9 C 5,6 C 80 % 997,9 hPa 0,0 l/m 0 min 0 min 16 W/m 22,5 km/h (4 Bft) 100,00 %
23.11.2022 15:58 9,6 C 8,9 C 5,0 C 80 % 997,9 hPa 0,0 l/m 0 min 0 min 16 W/m 12,9 km/h (3 Bft) 100,00 %
23.11.2022 16:00 9,6 C 8,9 C 5,0 C 81 % 998,0 hPa 0,0 l/m 0 min 0 min 16 W/m 16,1 km/h (3 Bft) 97,87 %
23.11.2022 16:02 9,6 C 8,9 C 5,0 C 81 % 998,0 hPa 0,0 l/m 0 min 0 min 16 W/m 19,3 km/h (3 Bft) 97,87 %
23.11.2022 16:04 9,6 C 8,9 C 5,0 C 81 % 998,1 hPa 0,0 l/m 0 min 0 min 17 W/m 16,1 km/h (3 Bft) 100,00 %
23.11.2022 16:06 9,6 C 8,9 C 5,0 C 81 % 998,2 hPa 0,0 l/m 0 min 0 min 15 W/m 19,3 km/h (3 Bft) 97,96 %
23.11.2022 16:08 9,6 C 8,9 C 5,0 C 81 % 998,2 hPa 0,0 l/m 0 min 0 min 13 W/m 16,1 km/h (3 Bft) 97,87 %
23.11.2022 16:10 9,5 C 8,9 C 5,0 C 81 % 998,3 hPa 0,0 l/m 0 min 0 min 10 W/m 29,0 km/h (5 Bft) 97,87 %
23.11.2022 16:12 9,5 C 8,9 C 5,0 C 81 % 998,3 hPa 0,0 l/m 0 min 0 min 8 W/m 12,9 km/h (3 Bft) 95,74 %
23.11.2022 16:14 9,5 C 8,9 C 5,0 C 81 % 998,3 hPa 0,0 l/m 0 min 2 min 7 W/m 9,7 km/h (2 Bft) 93,48 %
23.11.2022 16:16 9,5 C 8,9 C 4,4 C 82 % 998,4 hPa 0,0 l/m 0 min 2 min 6 W/m 22,5 km/h (4 Bft) 97,87 %
23.11.2022 16:18 9,5 C 8,3 C 3,9 C 82 % 998,4 hPa 0,2 l/m 0 min 2 min 5 W/m 19,3 km/h (3 Bft) 95,74 %
23.11.2022 16:20 9,4 C 8,3 C 3,9 C 83 % 998,5 hPa 0,0 l/m 0 min 2 min 2 W/m 12,9 km/h (3 Bft) 95,74 %
23.11.2022 16:22 9,4 C 7,8 C 3,9 C 83 % 998,5 hPa 0,0 l/m 0 min 2 min 0 W/m 16,1 km/h (3 Bft) 97,87 %
23.11.2022 16:24 9,4 C 7,8 C 3,3 C 84 % 998,6 hPa 0,0 l/m 0 min 2 min 0 W/m 29,0 km/h (5 Bft) 97,87 %
23.11.2022 16:26 9,3 C 7,8 C 3,3 C 84 % 998,6 hPa 0,0 l/m 0 min 2 min 0 W/m 16,1 km/h (3 Bft) 97,83 %
23.11.2022 16:28 9,3 C 7,8 C 3,3 C 85 % 998,6 hPa 0,2 l/m 0 min 2 min 0 W/m 16,1 km/h (3 Bft) 95,74 %
23.11.2022 16:30 9,2 C 7,8 C 3,3 C 85 % 998,7 hPa 0,0 l/m 0 min 2 min 0 W/m 22,5 km/h (4 Bft) 97,87 %
23.11.2022 16:32 9,1 C 7,8 C 3,3 C 86 % 998,7 hPa 0,0 l/m 0 min 2 min 0 W/m 12,9 km/h (3 Bft) 97,87 %
23.11.2022 16:34 9,1 C 7,8 C 3,3 C 86 % 998,8 hPa 0,0 l/m 0 min 2 min 0 W/m 9,7 km/h (2 Bft) 97,87 %
23.11.2022 16:36 9,0 C 7,8 C 3,3 C 87 % 998,8 hPa 0,0 l/m 0 min 2 min 0 W/m 35,4 km/h (5 Bft) 97,87 %
23.11.2022 16:38 8,9 C 7,8 C 3,3 C 87 % 998,9 hPa 0,0 l/m 0 min 2 min 0 W/m 16,1 km/h (3 Bft) 97,83 %
23.11.2022 16:40 8,8 C 7,2 C 3,3 C 87 % 998,9 hPa 0,2 l/m 0 min 2 min 0 W/m 22,5 km/h (4 Bft) 97,87 %
23.11.2022 16:42 8,8 C 7,2 C 3,3 C 88 % 999,0 hPa 0,0 l/m 0 min 2 min 0 W/m 25,7 km/h (4 Bft) 97,87 %
23.11.2022 16:44 8,8 C 7,2 C 3,3 C 88 % 998,9 hPa 0,0 l/m 0 min 2 min 0 W/m 12,9 km/h (3 Bft) 100,00 %
23.11.2022 16:46 8,7 C 7,2 C 3,3 C 89 % 998,8 hPa 0,2 l/m 0 min 2 min 0 W/m 12,9 km/h (3 Bft) 100,00 %
23.11.2022 16:48 8,6 C 7,2 C 3,3 C 89 % 999,0 hPa 0,0 l/m 0 min 2 min 0 W/m 22,5 km/h (4 Bft) 100,00 %
23.11.2022 16:50 8,6 C 7,2 C 3,3 C 89 % 999,0 hPa 0,0 l/m 0 min 2 min 0 W/m 22,5 km/h (4 Bft) 100,00 %
23.11.2022 16:52 8,6 C 7,2 C 3,3 C 90 % 999,1 hPa 0,2 l/m 0 min 2 min 0 W/m 9,7 km/h (2 Bft) 100,00 %
23.11.2022 16:54 8,5 C 7,2 C 3,3 C 90 % 999,1 hPa 0,0 l/m 0 min 2 min 0 W/m 12,9 km/h (3 Bft) 97,87 %
23.11.2022 16:56 8,4 C 7,2 C 3,3 C 90 % 999,2 hPa 0,0 l/m 0 min 2 min 0 W/m 22,5 km/h (4 Bft) 100,00 %
23.11.2022 16:58 8,4 C 7,2 C 3,3 C 91 % 999,3 hPa 0,2 l/m 0 min 2 min 0 W/m 16,1 km/h (3 Bft) 100,00 %
23.11.2022 17:00 8,4 C 7,2 C 3,3 C 91 % 999,4 hPa 0,0 l/m 0 min 2 min 0 W/m 19,3 km/h (3 Bft) 100,00 %
23.11.2022 17:02 8,3 C 7,2 C 3,3 C 91 % 999,4 hPa 0,0 l/m 0 min 2 min 0 W/m 9,7 km/h (2 Bft) 100,00 %
23.11.2022 17:04 8,3 C 7,2 C 3,3 C 91 % 999,4 hPa 0,0 l/m 0 min 2 min 0 W/m 19,3 km/h (3 Bft) 95,83 %
23.11.2022 17:06 8,3 C 7,2 C 3,3 C 91 % 999,5 hPa 0,2 l/m 0 min 2 min 0 W/m 16,1 km/h (3 Bft) 100,00 %
23.11.2022 17:08 8,3 C 7,2 C 3,3 C 92 % 999,4 hPa 0,0 l/m 0 min 2 min 0 W/m 6,4 km/h (2 Bft) 95,65 %
23.11.2022 17:10 8,3 C 7,2 C 3,3 C 92 % 999,5 hPa 0,2 l/m 0 min 2 min 0 W/m 12,9 km/h (3 Bft) 100,00 %
23.11.2022 17:12 8,2 C 7,2 C 3,3 C 92 % 999,5 hPa 0,0 l/m 0 min 2 min 0 W/m 9,7 km/h (2 Bft) 93,62 %
23.11.2022 17:14 8,2 C 7,2 C 3,3 C 92 % 999,5 hPa 0,0 l/m 0 min 2 min 0 W/m 16,1 km/h (3 Bft) 95,74 %
23.11.2022 17:16 8,2 C 7,2 C 3,3 C 93 % 999,6 hPa 0,2 l/m 0 min 2 min 0 W/m 12,9 km/h (3 Bft) 95,74 %
23.11.2022 17:18 8,2 C 7,2 C 3,3 C 92 % 999,6 hPa 0,0 l/m 0 min 2 min 0 W/m 16,1 km/h (3 Bft) 93,62 %
23.11.2022 17:20 8,1 C 7,2 C 3,3 C 93 % 999,6 hPa 0,0 l/m 0 min 2 min 0 W/m 12,9 km/h (3 Bft) 95,65 %
23.11.2022 17:22 8,1 C 6,7 C 3,3 C 93 % 999,7 hPa 0,2 l/m 0 min 2 min 0 W/m 16,1 km/h (3 Bft) 95,74 %
23.11.2022 17:24 8,1 C 6,7 C 3,3 C 93 % 999,7 hPa 0,0 l/m 0 min 2 min 0 W/m 16,1 km/h (3 Bft) 95,74 %
23.11.2022 17:26 8,1 C 6,7 C 3,3 C 93 % 999,7 hPa 0,2 l/m 0 min 2 min 0 W/m 22,5 km/h (4 Bft) 91,49 %
23.11.2022 17:28 8,1 C 6,7 C 3,3 C 93 % 999,8 hPa 0,0 l/m 0 min 2 min 0 W/m 12,9 km/h (3 Bft) 93,62 %
23.11.2022 17:30 8,0 C 6,7 C 3,3 C 93 % 999,8 hPa 0,0 l/m 0 min 2 min 0 W/m 19,3 km/h (3 Bft) 95,74 %
23.11.2022 17:32 8,0 C 6,7 C 3,3 C 94 % 999,8 hPa 0,2 l/m 0 min 2 min 0 W/m 12,9 km/h (3 Bft) 95,65 %
23.11.2022 17:34 8,0 C 6,7 C 3,3 C 93 % 999,8 hPa 0,0 l/m 0 min 2 min 0 W/m 12,9 km/h (3 Bft) 95,74 %
23.11.2022 17:36 8,0 C 6,7 C 3,3 C 94 % 999,9 hPa 0,0 l/m 0 min 2 min 0 W/m 12,9 km/h (3 Bft) 95,74 %
23.11.2022 17:38 7,9 C 6,7 C 3,3 C 94 % 999,8 hPa 0,0 l/m 0 min 2 min 0 W/m 19,3 km/h (3 Bft) 95,74 %
23.11.2022 17:40 7,9 C 6,7 C 3,3 C 94 % 999,9 hPa 0,0 l/m 0 min 2 min 0 W/m 12,9 km/h (3 Bft) 93,62 %
23.11.2022 17:42 7,9 C 6,7 C 3,3 C 94 % 999,9 hPa 0,0 l/m 0 min 2 min 0 W/m 9,7 km/h (2 Bft) 93,62 %
23.11.2022 17:44 7,9 C 6,7 C 3,3 C 94 % 999,8 hPa 0,2 l/m 0 min 2 min 0 W/m 6,4 km/h (2 Bft) 93,48 %
23.11.2022 17:46 7,9 C 6,7 C 3,3 C 94 % 999,9 hPa 0,0 l/m 0 min 2 min 0 W/m 9,7 km/h (2 Bft) 95,74 %
23.11.2022 17:48 7,9 C 6,7 C 3,3 C 94 % 999,9 hPa 0,0 l/m 0 min 2 min 0 W/m 16,1 km/h (3 Bft) 95,74 %
23.11.2022 17:50 7,8 C 6,7 C 3,3 C 94 % 999,9 hPa 0,2 l/m 0 min 2 min 0 W/m 12,9 km/h (3 Bft) 97,87 %
23.11.2022 17:52 7,8 C 6,7 C 3,3 C 94 % 999,9 hPa 0,0 l/m 0 min 2 min 0 W/m 12,9 km/h (3 Bft) 93,62 %
23.11.2022 17:54 7,8 C 6,7 C 3,3 C 94 % 999,9 hPa 0,0 l/m 0 min 2 min 0 W/m 12,9 km/h (3 Bft) 97,83 %
23.11.2022 17:56 7,8 C 6,7 C 3,3 C 94 % 999,9 hPa 0,0 l/m 0 min 2 min 0 W/m 16,1 km/h (3 Bft) 97,87 %
23.11.2022 17:58 7,8 C 6,7 C 3,3 C 94 % 1000,0 hPa 0,2 l/m 0 min 2 min 0 W/m 16,1 km/h (3 Bft) 97,87 %
23.11.2022 18:00 7,8 C 6,7 C 3,3 C 94 % 1000,0 hPa 0,0 l/m 0 min 2 min 0 W/m 19,3 km/h (3 Bft) 93,62 %
23.11.2022 18:02 7,8 C 6,7 C 3,3 C 95 % 1000,1 hPa 0,0 l/m 0 min 2 min 0 W/m 12,9 km/h (3 Bft) 93,62 %
23.11.2022 18:04 7,7 C 6,7 C 3,3 C 95 % 1000,1 hPa 0,2 l/m 0 min 2 min 0 W/m 9,7 km/h (2 Bft) 95,74 %
23.11.2022 18:08 7,7 C 6,7 C 3,3 C 95 % 1000,0 hPa 0,0 l/m 0 min 4 min 0 W/m 19,3 km/h (3 Bft) 95,92 %
23.11.2022 18:10 7,7 C 6,7 C 3,3 C 95 % 1000,0 hPa 0,0 l/m 0 min 2 min 0 W/m 12,9 km/h (3 Bft) 97,14 %
23.11.2022 18:12 7,6 C 6,7 C 3,3 C 95 % 1000,0 hPa 0,2 l/m 0 min 2 min 0 W/m 16,1 km/h (3 Bft) 98,11 %
23.11.2022 18:14 7,6 C 6,7 C 3,3 C 95 % 1000,0 hPa 0,0 l/m 0 min 2 min 0 W/m 16,1 km/h (3 Bft) 96,00 %
23.11.2022 18:16 7,6 C 6,7 C 3,3 C 95 % 1000,0 hPa 0,0 l/m 0 min 2 min 0 W/m 12,9 km/h (3 Bft) 95,92 %
23.11.2022 18:18 7,6 C 6,7 C 3,3 C 95 % 1000,1 hPa 0,2 l/m 0 min 2 min 0 W/m 16,1 km/h (3 Bft) 95,74 %
23.11.2022 18:20 7,6 C 6,7 C 3,3 C 95 % 1000,1 hPa 0,0 l/m 0 min 2 min 0 W/m 16,1 km/h (3 Bft) 97,87 %
23.11.2022 18:22 7,5 C 6,7 C 3,3 C 95 % 1000,2 hPa 0,0 l/m 0 min 2 min 0 W/m 16,1 km/h (3 Bft) 97,87 %
23.11.2022 18:24 7,5 C 6,7 C 3,3 C 95 % 1000,2 hPa 0,0 l/m 0 min 2 min 0 W/m 16,1 km/h (3 Bft) 97,83 %
23.11.2022 18:26 7,5 C 6,7 C 3,3 C 95 % 1000,3 hPa 0,0 l/m 0 min 0 min 0 W/m 12,9 km/h (3 Bft) 97,87 %
23.11.2022 18:28 7,4 C 6,7 C 3,3 C 95 % 1000,3 hPa 0,0 l/m 0 min 0 min 0 W/m 12,9 km/h (3 Bft) 95,74 %
23.11.2022 18:30 7,4 C 6,7 C 3,3 C 95 % 1000,5 hPa 0,0 l/m 0 min 0 min 0 W/m 16,1 km/h (3 Bft) 95,74 %
23.11.2022 18:32 7,4 C 6,7 C 3,3 C 95 % 1000,5 hPa 0,0 l/m 0 min 0 min 0 W/m 12,9 km/h (3 Bft) 97,87 %
23.11.2022 18:34 7,3 C 6,7 C 3,3 C 95 % 1000,4 hPa 0,0 l/m 0 min 0 min 0 W/m 9,7 km/h (2 Bft) 78,72 %
23.11.2022 18:36 7,3 C 6,1 C 3,3 C 95 % 1000,4 hPa 0,0 l/m 0 min 0 min 0 W/m 9,7 km/h (2 Bft) 77,27 %
23.11.2022 18:38 7,3 C 6,1 C 3,3 C 95 % 1000,5 hPa 0,0 l/m 0 min 0 min 0 W/m 9,7 km/h (2 Bft) 97,87 %
23.11.2022 18:40 7,3 C 6,1 C 3,3 C 95 % 1000,4 hPa 0,0 l/m 0 min 0 min 0 W/m 6,4 km/h (2 Bft) 97,87 %
23.11.2022 18:42 7,3 C 6,1 C 3,3 C 95 % 1000,4 hPa 0,0 l/m 0 min 0 min 0 W/m 6,4 km/h (2 Bft) 97,87 %
23.11.2022 18:44 7,3 C 6,1 C 3,3 C 95 % 1000,4 hPa 0,0 l/m 0 min 0 min 0 W/m 6,4 km/h (2 Bft) 100,00 %
23.11.2022 18:46 7,3 C 6,1 C 3,3 C 95 % 1000,4 hPa 0,0 l/m 0 min 0 min 0 W/m 6,4 km/h (2 Bft) 100,00 %
23.11.2022 18:48 7,3 C 6,1 C 3,3 C 95 % 1000,5 hPa 0,0 l/m 0 min 0 min 0 W/m 3,2 km/h (1 Bft) 97,83 %
23.11.2022 18:50 7,3 C 6,7 C 3,3 C 95 % 1000,5 hPa 0,0 l/m 0 min 0 min 0 W/m 6,4 km/h (2 Bft) 97,87 %
23.11.2022 18:52 7,3 C 6,7 C 3,3 C 95 % 1000,6 hPa 0,0 l/m 0 min 0 min 0 W/m 6,4 km/h (2 Bft) 95,74 %
23.11.2022 18:54 7,3 C 6,7 C 3,3 C 95 % 1000,5 hPa 0,0 l/m 0 min 0 min 0 W/m 6,4 km/h (2 Bft) 97,87 %
23.11.2022 18:56 7,3 C 6,7 C 3,3 C 95 % 1000,5 hPa 0,0 l/m 0 min 0 min 0 W/m 6,4 km/h (2 Bft) 100,00 %
23.11.2022 18:58 7,3 C 6,7 C 3,3 C 95 % 1000,5 hPa 0,0 l/m 0 min 0 min 0 W/m 6,4 km/h (2 Bft) 97,87 %
23.11.2022 19:00 7,3 C 6,7 C 3,3 C 95 % 1000,5 hPa 0,0 l/m 0 min 0 min 0 W/m 16,1 km/h (3 Bft) 100,00 %
23.11.2022 19:02 7,3 C 6,7 C 3,3 C 95 % 1000,6 hPa 0,0 l/m 0 min 0 min 0 W/m 6,4 km/h (2 Bft) 95,74 %
23.11.2022 19:04 7,3 C 6,7 C 3,3 C 95 % 1000,6 hPa 0,0 l/m 0 min 0 min 0 W/m 12,9 km/h (3 Bft) 97,87 %
23.11.2022 19:06 7,3 C 6,7 C 3,3 C 95 % 1000,6 hPa 0,0 l/m 0 min 2 min 0 W/m 6,4 km/h (2 Bft) 100,00 %
23.11.2022 19:08 7,4 C 6,7 C 3,3 C 95 % 1000,6 hPa 0,0 l/m 0 min 0 min 0 W/m 3,2 km/h (1 Bft) 100,00 %
23.11.2022 19:10 7,4 C 6,7 C 3,3 C 95 % 1000,7 hPa 0,0 l/m 0 min 0 min 0 W/m 6,4 km/h (2 Bft) 97,87 %
23.11.2022 19:12 7,4 C 6,7 C 3,3 C 95 % 1000,7 hPa 0,0 l/m 0 min 0 min 0 W/m 6,4 km/h (2 Bft) 95,65 %
23.11.2022 19:14 7,3 C 6,7 C 3,3 C 95 % 1000,7 hPa 0,0 l/m 0 min 0 min 0 W/m 9,7 km/h (2 Bft) 100,00 %
23.11.2022 19:16 7,3 C 6,7 C 3,3 C 95 % 1000,8 hPa 0,0 l/m 0 min 0 min 0 W/m 6,4 km/h (2 Bft) 97,87 %
23.11.2022 19:18 7,3 C 6,7 C 3,3 C 95 % 1000,8 hPa 0,0 l/m 0 min 0 min 0 W/m 6,4 km/h (2 Bft) 100,00 %
23.11.2022 19:20 7,3 C 6,7 C 3,3 C 95 % 1000,8 hPa 0,0 l/m 0 min 0 min 0 W/m 12,9 km/h (3 Bft) 100,00 %
23.11.2022 19:22 7,3 C 6,7 C 3,3 C 95 % 1000,9 hPa 0,0 l/m 0 min 0 min 0 W/m 6,4 km/h (2 Bft) 95,74 %
23.11.2022 19:24 7,3 C 6,7 C 3,3 C 95 % 1000,9 hPa 0,0 l/m 0 min 0 min 0 W/m 3,2 km/h (1 Bft) 97,83 %
23.11.2022 19:26 7,3 C 6,7 C 3,3 C 95 % 1000,9 hPa 0,0 l/m 0 min 0 min 0 W/m 12,9 km/h (3 Bft) 97,87 %
23.11.2022 19:28 7,3 C 6,7 C 3,3 C 95 % 1000,9 hPa 0,0 l/m 0 min 0 min 0 W/m 9,7 km/h (2 Bft) 97,87 %
23.11.2022 19:30 7,3 C 6,7 C 3,3 C 95 % 1000,9 hPa 0,0 l/m 0 min 0 min 0 W/m 6,4 km/h (2 Bft) 95,74 %
23.11.2022 19:32 7,4 C 6,7 C 3,3 C 96 % 1001,0 hPa 0,0 l/m 0 min 0 min 0 W/m 12,9 km/h (3 Bft) 97,87 %
23.11.2022 19:34 7,4 C 6,7 C 3,3 C 96 % 1000,9 hPa 0,0 l/m 0 min 0 min 0 W/m 6,4 km/h (2 Bft) 97,87 %
23.11.2022 19:36 7,4 C 6,7 C 3,3 C 96 % 1001,0 hPa 0,0 l/m 0 min 0 min 0 W/m 6,4 km/h (2 Bft) 95,65 %
23.11.2022 19:38 7,4 C 6,7 C 3,3 C 96 % 1001,0 hPa 0,0 l/m 0 min 0 min 0 W/m 6,4 km/h (2 Bft) 97,87 %
23.11.2022 19:40 7,4 C 6,7 C 3,3 C 96 % 1001,0 hPa 0,0 l/m 0 min 0 min 0 W/m 9,7 km/h (2 Bft) 97,87 %
23.11.2022 19:42 7,4 C 6,7 C 3,3 C 96 % 1001,1 hPa 0,0 l/m 0 min 0 min 0 W/m 3,2 km/h (1 Bft) 97,87 %
23.11.2022 19:44 7,4 C 6,7 C 3,3 C 96 % 1001,0 hPa 0,0 l/m 0 min 0 min 0 W/m 3,2 km/h (1 Bft) 95,74 %
23.11.2022 19:46 7,4 C 6,7 C 3,3 C 96 % 1001,2 hPa 0,0 l/m 0 min 0 min 0 W/m 9,7 km/h (2 Bft) 95,74 %
23.11.2022 19:48 7,4 C 6,7 C 3,3 C 96 % 1001,2 hPa 0,0 l/m 0 min 0 min 0 W/m 6,4 km/h (2 Bft) 97,83 %
23.11.2022 19:50 7,4 C 6,7 C 3,3 C 96 % 1001,2 hPa 0,0 l/m 0 min 0 min 0 W/m 6,4 km/h (2 Bft) 97,87 %
23.11.2022 19:52 7,4 C 6,7 C 3,3 C 96 % 1001,3 hPa 0,0 l/m 0 min 0 min 0 W/m 6,4 km/h (2 Bft) 93,62 %
23.11.2022 19:54 7,4 C 6,7 C 3,3 C 96 % 1001,2 hPa 0,0 l/m 0 min 0 min 0 W/m 16,1 km/h (3 Bft) 95,74 %
23.11.2022 19:56 7,4 C 6,7 C 3,3 C 96 % 1001,3 hPa 0,0 l/m 0 min 0 min 0 W/m 6,4 km/h (2 Bft) 95,74 %
23.11.2022 19:58 7,3 C 6,7 C 3,3 C 96 % 1001,4 hPa 0,0 l/m 0 min 0 min 0 W/m 9,7 km/h (2 Bft) 95,74 %
23.11.2022 20:00 7,3 C 6,7 C 3,3 C 96 % 1001,4 hPa 0,0 l/m 0 min 0 min 0 W/m 6,4 km/h (2 Bft) 95,65 %
23.11.2022 20:02 7,3 C 6,7 C 3,3 C 96 % 1001,5 hPa 0,0 l/m 0 min 0 min 0 W/m 6,4 km/h (2 Bft) 89,36 %
23.11.2022 20:04 7,3 C 6,7 C 3,3 C 96 % 1001,6 hPa 0,0 l/m 0 min 0 min 0 W/m 9,7 km/h (2 Bft) 95,74 %
23.11.2022 20:06 7,3 C 6,1 C 3,3 C 96 % 1001,6 hPa 0,0 l/m 0 min 0 min 0 W/m 6,4 km/h (2 Bft) 95,74 %
23.11.2022 20:08 7,2 C 6,1 C 3,3 C 96 % 1001,5 hPa 0,0 l/m 0 min 0 min 0 W/m 3,2 km/h (1 Bft) 95,74 %
23.11.2022 20:10 7,2 C 6,1 C 3,3 C 95 % 1001,6 hPa 0,0 l/m 0 min 0 min 0 W/m 3,2 km/h (1 Bft) 95,74 %
23.11.2022 20:12 7,2 C 6,1 C 3,3 C 96 % 1001,5 hPa 0,0 l/m 0 min 0 min 0 W/m 3,2 km/h (1 Bft) 97,83 %
23.11.2022 20:14 7,2 C 6,1 C 3,3 C 95 % 1001,5 hPa 0,0 l/m 0 min 0 min 0 W/m 9,7 km/h (2 Bft) 97,87 %
23.11.2022 20:16 7,2 C 6,1 C 3,3 C 96 % 1001,5 hPa 0,0 l/m 0 min 0 min 0 W/m 6,4 km/h (2 Bft) 97,87 %
23.11.2022 20:18 7,1 C 6,1 C 3,3 C 96 % 1001,6 hPa 0,0 l/m 0 min 0 min 0 W/m 6,4 km/h (2 Bft) 97,87 %
23.11.2022 20:20 7,1 C 6,1 C 3,3 C 96 % 1001,6 hPa 0,0 l/m 0 min 0 min 0 W/m 6,4 km/h (2 Bft) 97,87 %
23.11.2022 20:22 7,1 C 6,1 C 3,3 C 96 % 1001,6 hPa 0,0 l/m 0 min 0 min 0 W/m 3,2 km/h (1 Bft) 95,74 %
23.11.2022 20:24 7,1 C 6,1 C 2,8 C 96 % 1001,6 hPa 0,0 l/m 0 min 0 min 0 W/m 3,2 km/h (1 Bft) 95,65 %
23.11.2022 20:26 7,1 C 6,1 C 2,8 C 96 % 1001,6 hPa 0,0 l/m 0 min 0 min 0 W/m 6,4 km/h (2 Bft) 97,87 %
23.11.2022 20:28 7,0 C 6,1 C 2,8 C 96 % 1001,6 hPa 0,0 l/m 0 min 0 min 0 W/m 3,2 km/h (1 Bft) 97,87 %
23.11.2022 20:30 7,0 C 6,1 C 2,8 C 95 % 1001,6 hPa 0,0 l/m 0 min 0 min 0 W/m 6,4 km/h (2 Bft) 97,87 %
23.11.2022 20:32 6,9 C 6,1 C 2,8 C 95 % 1001,7 hPa 0,0 l/m 0 min 0 min 0 W/m 3,2 km/h (1 Bft) 97,87 %
23.11.2022 20:34 6,9 C 6,1 C 2,8 C 95 % 1001,8 hPa 0,0 l/m 0 min 0 min 0 W/m 9,7 km/h (2 Bft) 95,74 %
23.11.2022 20:36 6,9 C 6,1 C 2,8 C 95 % 1001,8 hPa 0,0 l/m 0 min 0 min 0 W/m 3,2 km/h (1 Bft) 97,83 %
23.11.2022 20:38 6,9 C 6,1 C 2,8 C 95 % 1001,9 hPa 0,0 l/m 0 min 0 min 0 W/m 6,4 km/h (2 Bft) 97,87 %
23.11.2022 20:40 6,9 C 6,1 C 2,8 C 95 % 1001,9 hPa 0,0 l/m 0 min 0 min 0 W/m 3,2 km/h (1 Bft) 100,00 %
23.11.2022 20:42 6,8 C 5,6 C 2,8 C 95 % 1002,0 hPa 0,0 l/m 0 min 0 min 0 W/m 3,2 km/h (1 Bft) 97,87 %
23.11.2022 20:44 6,8 C 5,6 C 2,8 C 95 % 1002,0 hPa 0,0 l/m 0 min 0 min 0 W/m 6,4 km/h (2 Bft) 97,87 %
23.11.2022 20:46 6,8 C 5,6 C 2,8 C 96 % 1002,0 hPa 0,0 l/m 0 min 0 min 0 W/m 6,4 km/h (2 Bft) 97,87 %
23.11.2022 20:48 6,8 C 5,6 C 2,8 C 96 % 1002,0 hPa 0,0 l/m 0 min 0 min 0 W/m 6,4 km/h (2 Bft) 97,83 %
23.11.2022 20:50 6,8 C 5,6 C 2,8 C 96 % 1002,1 hPa 0,0 l/m 0 min 0 min 0 W/m 3,2 km/h (1 Bft) 97,87 %
23.11.2022 20:52 6,8 C 5,6 C 2,8 C 96 % 1002,1 hPa 0,0 l/m 0 min 0 min 0 W/m 3,2 km/h (1 Bft) 95,74 %
23.11.2022 20:54 6,7 C 5,6 C 2,8 C 96 % 1002,1 hPa 0,0 l/m 0 min 0 min 0 W/m 3,2 km/h (1 Bft) 97,87 %
23.11.2022 20:56 6,7 C 5,6 C 2,8 C 96 % 1002,1 hPa 0,0 l/m 0 min 0 min 0 W/m 12,9 km/h (3 Bft) 97,87 %
23.11.2022 20:58 6,7 C 5,6 C 2,8 C 95 % 1002,2 hPa 0,0 l/m 0 min 0 min 0 W/m 3,2 km/h (1 Bft) 97,83 %
23.11.2022 21:00 6,7 C 5,6 C 2,8 C 95 % 1002,2 hPa 0,0 l/m 0 min 0 min 0 W/m 3,2 km/h (1 Bft) 97,87 %
23.11.2022 21:02 6,7 C 5,6 C 2,8 C 95 % 1002,2 hPa 0,0 l/m 0 min 0 min 0 W/m 3,2 km/h (1 Bft) 97,87 %
23.11.2022 21:04 6,6 C 5,6 C 2,8 C 95 % 1002,3 hPa 0,0 l/m 0 min 0 min 0 W/m 3,2 km/h (1 Bft) 97,87 %
23.11.2022 21:06 6,6 C 5,6 C 2,8 C 95 % 1002,3 hPa 0,0 l/m 0 min 0 min 0 W/m 3,2 km/h (1 Bft) 97,87 %
23.11.2022 21:08 6,6 C 5,6 C 2,8 C 95 % 1002,3 hPa 0,0 l/m 0 min 0 min 0 W/m 3,2 km/h (1 Bft) 95,74 %
23.11.2022 21:10 6,6 C 5,6 C 2,8 C 95 % 1002,3 hPa 0,0 l/m 0 min 0 min 0 W/m 3,2 km/h (1 Bft) 97,83 %
23.11.2022 21:12 6,6 C 5,6 C 2,8 C 95 % 1002,3 hPa 0,0 l/m 0 min 0 min 0 W/m 6,4 km/h (2 Bft) 97,87 %
23.11.2022 21:14 6,6 C 5,6 C 2,8 C 95 % 1002,3 hPa 0,0 l/m 0 min 0 min 0 W/m 3,2 km/h (1 Bft) 95,74 %
23.11.2022 21:16 6,6 C 5,6 C 2,8 C 96 % 1002,3 hPa 0,0 l/m 0 min 0 min 0 W/m 12,9 km/h (3 Bft) 97,87 %
23.11.2022 21:18 6,5 C 5,6 C 2,8 C 96 % 1002,4 hPa 0,0 l/m 0 min 0 min 0 W/m 6,4 km/h (2 Bft) 95,74 %
23.11.2022 21:20 6,5 C 5,6 C 2,8 C 96 % 1002,4 hPa 0,0 l/m 0 min 0 min 0 W/m 3,2 km/h (1 Bft) 97,87 %
23.11.2022 21:22 6,5 C 5,6 C 2,8 C 96 % 1002,4 hPa 0,0 l/m 0 min 0 min 0 W/m 6,4 km/h (2 Bft) 97,83 %
23.11.2022 21:24 6,5 C 5,6 C 2,8 C 96 % 1002,4 hPa 0,0 l/m 0 min 0 min 0 W/m 6,4 km/h (2 Bft) 100,00 %
23.11.2022 21:26 6,5 C 5,6 C 2,8 C 96 % 1002,5 hPa 0,0 l/m 0 min 0 min 0 W/m 3,2 km/h (1 Bft) 97,87 %
23.11.2022 21:28 6,5 C 5,6 C 2,8 C 96 % 1002,5 hPa 0,0 l/m 0 min 0 min 0 W/m 12,9 km/h (3 Bft) 97,87 %
23.11.2022 21:30 6,5 C 5,6 C 2,8 C 96 % 1002,5 hPa 0,0 l/m 0 min 0 min 0 W/m 6,4 km/h (2 Bft) 95,74 %
23.11.2022 21:32 6,4 C 5,6 C 2,8 C 96 % 1002,5 hPa 0,0 l/m 0 min 0 min 0 W/m 3,2 km/h (1 Bft) 95,74 %
23.11.2022 21:34 6,4 C 5,6 C 2,8 C 96 % 1002,5 hPa 0,0 l/m 0 min 0 min 0 W/m 6,4 km/h (2 Bft) 100,00 %
23.11.2022 21:36 6,4 C 5,6 C 2,8 C 96 % 1002,5 hPa 0,0 l/m 0 min 0 min 0 W/m 3,2 km/h (1 Bft) 97,87 %
23.11.2022 21:38 6,4 C 5,6 C 2,8 C 96 % 1002,6 hPa 0,0 l/m 0 min 0 min 0 W/m 6,4 km/h (2 Bft) 97,87 %
23.11.2022 21:40 6,4 C 5,6 C 2,8 C 96 % 1002,6 hPa 0,0 l/m 0 min 0 min 0 W/m 9,7 km/h (2 Bft) 97,87 %
23.11.2022 21:42 6,4 C 5,6 C 2,8 C 96 % 1002,6 hPa 0,0 l/m 0 min 0 min 0 W/m 3,2 km/h (1 Bft) 95,74 %
23.11.2022 21:44 6,4 C 5,6 C 2,8 C 96 % 1002,6 hPa 0,0 l/m 0 min 0 min 0 W/m 6,4 km/h (2 Bft) 95,74 %
23.11.2022 21:46 6,4 C 5,6 C 2,8 C 96 % 1002,6 hPa 0,0 l/m 0 min 0 min 0 W/m 3,2 km/h (1 Bft) 93,48 %
23.11.2022 21:48 6,4 C 5,6 C 2,8 C 96 % 1002,6 hPa 0,0 l/m 0 min 0 min 0 W/m 3,2 km/h (1 Bft) 95,74 %
23.11.2022 21:50 6,4 C 5,6 C 2,8 C 96 % 1002,6 hPa 0,0 l/m 0 min 0 min 0 W/m 3,2 km/h (1 Bft) 91,49 %
23.11.2022 21:52 6,3 C 5,6 C 2,8 C 96 % 1002,6 hPa 0,0 l/m 0 min 0 min 0 W/m 3,2 km/h (1 Bft) 95,74 %
23.11.2022 21:54 6,3 C 5,6 C 2,8 C 96 % 1002,7 hPa 0,0 l/m 0 min 0 min 0 W/m 3,2 km/h (1 Bft) 91,49 %
23.11.2022 21:56 6,3 C 5,6 C 2,8 C 96 % 1002,7 hPa 0,0 l/m 0 min 0 min 0 W/m 3,2 km/h (1 Bft) 95,74 %
23.11.2022 21:58 6,3 C 5,6 C 2,8 C 96 % 1002,8 hPa 0,0 l/m 0 min 0 min 0 W/m 9,7 km/h (2 Bft) 95,65 %
23.11.2022 22:00 6,3 C 5,6 C 2,8 C 96 % 1002,8 hPa 0,0 l/m 0 min 0 min 0 W/m 9,7 km/h (2 Bft) 95,74 %
23.11.2022 22:02 6,3 C 5,6 C 2,8 C 96 % 1002,8 hPa 0,0 l/m 0 min 0 min 0 W/m 12,9 km/h (3 Bft) 93,62 %
23.11.2022 22:04 6,3 C 5,6 C 2,8 C 96 % 1002,9 hPa 0,0 l/m 0 min 0 min 0 W/m 6,4 km/h (2 Bft) 93,62 %
23.11.2022 22:06 6,4 C 5,6 C 2,8 C 96 % 1002,9 hPa 0,0 l/m 0 min 0 min 0 W/m 12,9 km/h (3 Bft) 97,87 %
23.11.2022 22:08 6,4 C 5,6 C 2,8 C 96 % 1002,9 hPa 0,0 l/m 0 min 0 min 0 W/m 9,7 km/h (2 Bft) 93,62 %
23.11.2022 22:10 6,4 C 5,6 C 2,8 C 96 % 1002,9 hPa 0,0 l/m 0 min 0 min 0 W/m 12,9 km/h (3 Bft) 93,48 %
23.11.2022 22:12 6,5 C 6,1 C 2,8 C 96 % 1002,9 hPa 0,0 l/m 0 min 0 min 0 W/m 12,9 km/h (3 Bft) 93,62 %
23.11.2022 22:14 6,5 C 6,1 C 2,8 C 96 % 1002,9 hPa 0,0 l/m 0 min 0 min 0 W/m 16,1 km/h (3 Bft) 97,87 %
23.11.2022 22:16 6,6 C 6,1 C 2,8 C 96 % 1002,9 hPa 0,0 l/m 0 min 0 min 0 W/m 16,1 km/h (3 Bft) 93,62 %
23.11.2022 22:18 6,6 C 6,1 C 2,8 C 96 % 1003,0 hPa 0,0 l/m 0 min 0 min 0 W/m 9,7 km/h (2 Bft) 100,00 %
23.11.2022 22:20 6,6 C 6,1 C 2,8 C 97 % 1003,0 hPa 0,0 l/m 0 min 0 min 0 W/m 12,9 km/h (3 Bft) 100,00 %
23.11.2022 22:22 6,6 C 6,1 C 2,8 C 97 % 1003,0 hPa 0,0 l/m 0 min 0 min 0 W/m 9,7 km/h (2 Bft) 100,00 %
23.11.2022 22:24 6,6 C 6,1 C 2,8 C 97 % 1003,1 hPa 0,0 l/m 0 min 0 min 0 W/m 16,1 km/h (3 Bft) 100,00 %
23.11.2022 22:26 6,7 C 6,1 C 2,8 C 97 % 1003,0 hPa 0,0 l/m 0 min 0 min 0 W/m 12,9 km/h (3 Bft) 100,00 %
23.11.2022 22:28 6,7 C 6,1 C 2,8 C 97 % 1003,0 hPa 0,0 l/m 0 min 0 min 0 W/m 12,9 km/h (3 Bft) 97,87 %
23.11.2022 22:30 6,7 C 6,1 C 2,8 C 97 % 1003,0 hPa 0,0 l/m 0 min 0 min 0 W/m 16,1 km/h (3 Bft) 100,00 %
23.11.2022 22:32 6,7 C 6,1 C 2,8 C 97 % 1003,1 hPa 0,0 l/m 0 min 0 min 0 W/m 9,7 km/h (2 Bft) 100,00 %
23.11.2022 22:34 6,8 C 6,1 C 2,8 C 97 % 1003,2 hPa 0,0 l/m 0 min 0 min 0 W/m 12,9 km/h (3 Bft) 100,00 %
23.11.2022 22:36 6,8 C 6,1 C 3,3 C 97 % 1003,3 hPa 0,0 l/m 0 min 0 min 0 W/m 12,9 km/h (3 Bft) 97,87 %
23.11.2022 22:38 6,8 C 6,1 C 3,3 C 97 % 1003,3 hPa 0,0 l/m 0 min 0 min 0 W/m 12,9 km/h (3 Bft) 100,00 %
23.11.2022 22:40 6,8 C 6,1 C 3,3 C 97 % 1003,3 hPa 0,0 l/m 0 min 0 min 0 W/m 9,7 km/h (2 Bft) 100,00 %
23.11.2022 22:42 6,9 C 6,1 C 3,3 C 97 % 1003,3 hPa 0,0 l/m 0 min 0 min 0 W/m 6,4 km/h (2 Bft) 100,00 %
23.11.2022 22:44 6,9 C 6,1 C 3,3 C 97 % 1003,3 hPa 0,0 l/m 0 min 0 min 0 W/m 12,9 km/h (3 Bft) 100,00 %
23.11.2022 22:46 6,9 C 6,7 C 3,3 C 97 % 1003,3 hPa 0,0 l/m 0 min 0 min 0 W/m 9,7 km/h (2 Bft) 100,00 %
23.11.2022 22:48 7,0 C 6,7 C 3,3 C 97 % 1003,3 hPa 0,0 l/m 0 min 0 min 0 W/m 19,3 km/h (3 Bft) 100,00 %
23.11.2022 22:50 7,0 C 6,7 C 3,3 C 97 % 1003,4 hPa 0,0 l/m 0 min 0 min 0 W/m 16,1 km/h (3 Bft) 97,87 %
23.11.2022 22:52 7,1 C 6,7 C 3,3 C 97 % 1003,4 hPa 0,0 l/m 0 min 0 min 0 W/m 16,1 km/h (3 Bft) 100,00 %
23.11.2022 22:54 7,1 C 6,7 C 3,3 C 97 % 1003,3 hPa 0,0 l/m 0 min 0 min 0 W/m 16,1 km/h (3 Bft) 100,00 %
23.11.2022 22:56 7,2 C 6,7 C 3,3 C 97 % 1003,3 hPa 0,0 l/m 0 min 0 min 0 W/m 19,3 km/h (3 Bft) 97,87 %
23.11.2022 22:58 7,2 C 6,7 C 3,3 C 97 % 1003,5 hPa 0,2 l/m 0 min 2 min 0 W/m 22,5 km/h (4 Bft) 100,00 %
23.11.2022 23:00 7,3 C 6,7 C 3,9 C 97 % 1003,6 hPa 0,0 l/m 0 min 2 min 0 W/m 29,0 km/h (5 Bft) 100,00 %
23.11.2022 23:02 7,4 C 6,7 C 3,9 C 97 % 1003,4 hPa 0,2 l/m 0 min 2 min 0 W/m 22,5 km/h (4 Bft) 97,83 %
23.11.2022 23:04 7,6 C 7,2 C 3,9 C 97 % 1003,5 hPa 0,0 l/m 0 min 0 min 0 W/m 16,1 km/h (3 Bft) 100,00 %
23.11.2022 23:06 7,6 C 6,7 C 3,9 C 97 % 1003,5 hPa 0,0 l/m 0 min 0 min 0 W/m 16,1 km/h (3 Bft) 100,00 %
23.11.2022 23:08 7,6 C 6,7 C 3,9 C 97 % 1003,5 hPa 0,0 l/m 0 min 0 min 0 W/m 16,1 km/h (3 Bft) 100,00 %
23.11.2022 23:10 7,7 C 7,2 C 3,9 C 97 % 1003,5 hPa 0,0 l/m 0 min 0 min 0 W/m 16,1 km/h (3 Bft) 100,00 %
23.11.2022 23:12 7,7 C 7,2 C 3,9 C 97 % 1003,6 hPa 0,0 l/m 0 min 0 min 0 W/m 12,9 km/h (3 Bft) 97,87 %
23.11.2022 23:14 7,7 C 7,2 C 3,9 C 97 % 1003,6 hPa 0,0 l/m 0 min 0 min 0 W/m 16,1 km/h (3 Bft) 97,87 %
23.11.2022 23:16 7,7 C 7,2 C 3,9 C 97 % 1003,6 hPa 0,0 l/m 0 min 0 min 0 W/m 16,1 km/h (3 Bft) 97,83 %
23.11.2022 23:18 7,8 C 7,2 C 3,9 C 97 % 1003,5 hPa 0,0 l/m 0 min 0 min 0 W/m 16,1 km/h (3 Bft) 100,00 %
23.11.2022 23:20 7,7 C 7,2 C 3,9 C 97 % 1003,6 hPa 0,0 l/m 0 min 0 min 0 W/m 16,1 km/h (3 Bft) 93,62 %
23.11.2022 23:22 7,8 C 6,7 C 3,9 C 97 % 1003,6 hPa 0,0 l/m 0 min 0 min 0 W/m 12,9 km/h (3 Bft) 100,00 %
23.11.2022 23:24 7,7 C 6,7 C 3,9 C 97 % 1003,7 hPa 0,0 l/m 0 min 0 min 0 W/m 16,1 km/h (3 Bft) 100,00 %
23.11.2022 23:26 7,7 C 6,7 C 3,9 C 97 % 1003,6 hPa 0,0 l/m 0 min 0 min 0 W/m 12,9 km/h (3 Bft) 100,00 %
23.11.2022 23:28 7,7 C 7,2 C 3,9 C 97 % 1003,7 hPa 0,0 l/m 0 min 0 min 0 W/m 19,3 km/h (3 Bft) 97,87 %
23.11.2022 23:30 7,8 C 7,2 C 3,9 C 97 % 1003,7 hPa 0,0 l/m 0 min 0 min 0 W/m 22,5 km/h (4 Bft) 97,87 %
23.11.2022 23:32 7,8 C 7,2 C 3,9 C 97 % 1003,7 hPa 0,0 l/m 0 min 0 min 0 W/m 6,4 km/h (2 Bft) 97,14 %
23.11.2022 23:34 7,7 C 7,2 C 3,9 C 97 % 1003,8 hPa 0,0 l/m 0 min 0 min 0 W/m 25,7 km/h (4 Bft) 96,61 %
23.11.2022 23:36 7,7 C 7,2 C 3,9 C 97 % 1003,8 hPa 0,0 l/m 0 min 0 min 0 W/m 12,9 km/h (3 Bft) 95,74 %
23.11.2022 23:38 7,7 C 7,2 C 3,9 C 97 % 1003,8 hPa 0,0 l/m 0 min 0 min 0 W/m 16,1 km/h (3 Bft) 95,74 %
23.11.2022 23:40 7,7 C 7,2 C 3,9 C 97 % 1003,9 hPa 0,0 l/m 0 min 0 min 0 W/m 12,9 km/h (3 Bft) 91,43 %
23.11.2022 23:42 7,7 C 7,2 C 3,9 C 97 % 1003,9 hPa 0,0 l/m 0 min 0 min 0 W/m 16,1 km/h (3 Bft) 95,83 %
23.11.2022 23:44 7,8 C 7,2 C 3,9 C 97 % 1004,0 hPa 0,0 l/m 0 min 0 min 0 W/m 12,9 km/h (3 Bft) 95,74 %
23.11.2022 23:46 7,7 C 7,2 C 3,9 C 97 % 1004,0 hPa 0,0 l/m 0 min 0 min 0 W/m 22,5 km/h (4 Bft) 95,74 %
23.11.2022 23:48 7,8 C 7,2 C 3,9 C 97 % 1004,1 hPa 0,0 l/m 0 min 0 min 0 W/m 19,3 km/h (3 Bft) 91,49 %
23.11.2022 23:50 7,8 C 7,2 C 3,9 C 97 % 1004,1 hPa 0,0 l/m 0 min 0 min 0 W/m 12,9 km/h (3 Bft) 95,74 %
23.11.2022 23:52 7,8 C 7,2 C 3,9 C 97 % 1004,1 hPa 0,0 l/m 0 min 0 min 0 W/m 9,7 km/h (2 Bft) 95,74 %
23.11.2022 23:54 7,8 C 7,2 C 3,9 C 97 % 1004,1 hPa 0,0 l/m 0 min 0 min 0 W/m 19,3 km/h (3 Bft) 95,65 %
23.11.2022 23:56 7,8 C 7,2 C 3,9 C 97 % 1004,1 hPa 0,0 l/m 0 min 0 min 0 W/m 16,1 km/h (3 Bft) 93,62 %
23.11.2022 23:58 7,8 C 7,2 C 3,9 C 97 % 1004,1 hPa 0,0 l/m 0 min 0 min 0 W/m 16,1 km/h (3 Bft) 93,62 %
_ Min-Zeit 21:52 20:42 20:24 14:20 00:00 - - - - 18:48 09:22
Minimum _ 6,3 C 5,6 C 2,8 C 77 % 996,9 hPa - - - - 3,2 km/h (1 Bft) 57,45 %
_ Max-Zeit 13:44 13:38 12:44 22:20 23:48 16:18 10:37 18:08 13:38 14:08 00:04
Maximum _ 10,2 C 12,2 C 6,1 C 97 % 1004,1 hPa 0,2 l/m 5 min 4 min 317 W/m 38,6 km/h
S (5 Bft)
100,00 %
Durchschnitt _ 8,6 C 7,9 C 4,6 C 89 % 999,3 hPa #4,0 l/m #2:26 h #2:20 h 95 W/m 16,4 km/h (3 Bft) 97,00 %
© 2022 W. Hausmann